Wetterdaten: Donnerstag, 07.04.2022
Datum Zeit Temp. Aussen Temp. o. S. Temp +5cm Feuchte Auss Luftdruck Regen Sonnenschein Regendauer Solar Windben Empfang
07.04.2022 00:00 10,2 C 9,4 C 6,1 C 85 % 996,2 hPa 0,0 l/m 0 min 0 min 0 W/m 22,5 km/h (4 Bft) 97,87 %
07.04.2022 00:02 10,2 C 9,4 C 6,1 C 85 % 996,1 hPa 0,0 l/m 0 min 0 min 0 W/m 25,7 km/h (4 Bft) 100,00 %
07.04.2022 00:04 10,2 C 9,4 C 6,1 C 85 % 996,0 hPa 0,0 l/m 0 min 0 min 0 W/m 32,2 km/h (5 Bft) 100,00 %
07.04.2022 00:08 10,2 C 9,4 C 6,1 C 85 % 996,0 hPa 0,0 l/m 0 min 0 min 0 W/m 32,2 km/h (5 Bft) 100,00 %
07.04.2022 00:10 10,2 C 9,4 C 6,1 C 85 % 996,0 hPa 0,0 l/m 0 min 0 min 0 W/m 22,5 km/h (4 Bft) 100,00 %
07.04.2022 00:12 10,2 C 9,4 C 6,1 C 85 % 995,9 hPa 0,0 l/m 0 min 0 min 0 W/m 25,7 km/h (4 Bft) 100,00 %
07.04.2022 00:14 10,2 C 9,4 C 6,1 C 85 % 995,9 hPa 0,0 l/m 0 min 0 min 0 W/m 29,0 km/h (5 Bft) 100,00 %
07.04.2022 00:16 10,2 C 9,4 C 6,1 C 85 % 995,9 hPa 0,0 l/m 0 min 0 min 0 W/m 29,0 km/h (5 Bft) 97,87 %
07.04.2022 00:18 10,2 C 9,4 C 6,1 C 85 % 995,9 hPa 0,0 l/m 0 min 0 min 0 W/m 29,0 km/h (5 Bft) 100,00 %
07.04.2022 00:20 10,2 C 9,4 C 6,1 C 86 % 995,9 hPa 0,0 l/m 0 min 0 min 0 W/m 22,5 km/h (4 Bft) 100,00 %
07.04.2022 00:22 10,2 C 9,4 C 6,1 C 86 % 995,9 hPa 0,0 l/m 0 min 0 min 0 W/m 25,7 km/h (4 Bft) 100,00 %
07.04.2022 00:24 10,2 C 9,4 C 6,1 C 86 % 995,9 hPa 0,0 l/m 0 min 0 min 0 W/m 29,0 km/h (5 Bft) 100,00 %
07.04.2022 00:26 10,1 C 9,4 C 5,6 C 86 % 995,9 hPa 0,0 l/m 0 min 2 min 0 W/m 32,2 km/h (5 Bft) 100,00 %
07.04.2022 00:28 10,1 C 9,4 C 5,6 C 86 % 995,9 hPa 0,0 l/m 0 min 2 min 0 W/m 25,7 km/h (4 Bft) 100,00 %
07.04.2022 00:30 10,1 C 8,9 C 5,0 C 87 % 996,0 hPa 0,0 l/m 0 min 2 min 0 W/m 38,6 km/h (5 Bft) 100,00 %
07.04.2022 00:32 10,1 C 8,9 C 5,0 C 87 % 996,0 hPa 0,2 l/m 0 min 2 min 0 W/m 35,4 km/h (5 Bft) 100,00 %
07.04.2022 00:34 10,0 C 8,3 C 5,0 C 87 % 996,0 hPa 0,0 l/m 0 min 2 min 0 W/m 32,2 km/h (5 Bft) 97,87 %
07.04.2022 00:36 9,9 C 8,3 C 5,0 C 88 % 996,0 hPa 0,0 l/m 0 min 2 min 0 W/m 38,6 km/h (5 Bft) 100,00 %
07.04.2022 00:38 9,9 C 8,3 C 5,0 C 88 % 995,9 hPa 0,0 l/m 0 min 2 min 0 W/m 35,4 km/h (5 Bft) 100,00 %
07.04.2022 00:40 9,8 C 8,3 C 5,0 C 88 % 995,8 hPa 0,2 l/m 0 min 2 min 0 W/m 32,2 km/h (5 Bft) 100,00 %
07.04.2022 00:42 9,8 C 7,8 C 5,0 C 89 % 995,8 hPa 0,0 l/m 0 min 2 min 0 W/m 25,7 km/h (4 Bft) 100,00 %
07.04.2022 00:44 9,7 C 7,8 C 5,0 C 89 % 995,8 hPa 0,2 l/m 0 min 2 min 0 W/m 29,0 km/h (5 Bft) 100,00 %
07.04.2022 00:46 9,7 C 7,8 C 5,0 C 89 % 995,8 hPa 0,0 l/m 0 min 2 min 0 W/m 32,2 km/h (5 Bft) 97,87 %
07.04.2022 00:48 9,6 C 7,8 C 5,0 C 90 % 995,8 hPa 0,0 l/m 0 min 2 min 0 W/m 35,4 km/h (5 Bft) 97,87 %
07.04.2022 00:50 9,6 C 7,8 C 5,0 C 90 % 995,7 hPa 0,0 l/m 0 min 0 min 0 W/m 35,4 km/h (5 Bft) 100,00 %
07.04.2022 00:52 9,5 C 7,8 C 5,0 C 90 % 995,6 hPa 0,0 l/m 0 min 0 min 0 W/m 35,4 km/h (5 Bft) 97,83 %
07.04.2022 00:54 9,4 C 7,8 C 5,0 C 91 % 995,6 hPa 0,0 l/m 0 min 0 min 0 W/m 22,5 km/h (4 Bft) 51,16 %
07.04.2022 00:56 9,4 C 7,8 C 5,0 C 91 % 995,5 hPa 0,0 l/m 0 min 0 min 0 W/m 29,0 km/h (5 Bft) 97,87 %
07.04.2022 00:58 9,4 C 8,3 C 5,0 C 91 % 995,4 hPa 0,0 l/m 0 min 0 min 0 W/m 25,7 km/h (4 Bft) 95,74 %
07.04.2022 01:00 9,4 C 8,3 C 5,0 C 91 % 995,4 hPa 0,0 l/m 0 min 0 min 0 W/m 25,7 km/h (4 Bft) 97,87 %
07.04.2022 01:02 9,3 C 8,3 C 5,0 C 91 % 995,4 hPa 0,0 l/m 0 min 0 min 0 W/m 29,0 km/h (5 Bft) 97,87 %
07.04.2022 01:04 9,3 C 8,3 C 5,0 C 92 % 995,2 hPa 0,0 l/m 0 min 0 min 0 W/m 32,2 km/h (5 Bft) 97,83 %
07.04.2022 01:06 9,3 C 8,3 C 5,0 C 92 % 995,3 hPa 0,0 l/m 0 min 0 min 0 W/m 22,5 km/h (4 Bft) 97,87 %
07.04.2022 01:08 9,3 C 8,3 C 5,0 C 92 % 995,2 hPa 0,0 l/m 0 min 0 min 0 W/m 35,4 km/h (5 Bft) 97,87 %
07.04.2022 01:10 9,3 C 8,3 C 5,0 C 92 % 995,2 hPa 0,0 l/m 0 min 0 min 0 W/m 19,3 km/h (3 Bft) 97,87 %
07.04.2022 01:12 9,3 C 8,3 C 5,0 C 92 % 995,3 hPa 0,2 l/m 0 min 0 min 0 W/m 29,0 km/h (5 Bft) 97,87 %
07.04.2022 01:14 9,3 C 8,3 C 5,0 C 92 % 995,2 hPa 0,0 l/m 0 min 0 min 0 W/m 29,0 km/h (5 Bft) 97,87 %
07.04.2022 01:16 9,3 C 8,3 C 5,0 C 92 % 995,1 hPa 0,0 l/m 0 min 0 min 0 W/m 29,0 km/h (5 Bft) 97,83 %
07.04.2022 01:18 9,3 C 8,3 C 5,0 C 92 % 995,1 hPa 0,0 l/m 0 min 0 min 0 W/m 32,2 km/h (5 Bft) 97,87 %
07.04.2022 01:20 9,3 C 8,3 C 5,0 C 92 % 995,1 hPa 0,0 l/m 0 min 0 min 0 W/m 35,4 km/h (5 Bft) 97,87 %
07.04.2022 01:22 9,3 C 8,3 C 5,0 C 92 % 995,0 hPa 0,0 l/m 0 min 0 min 0 W/m 35,4 km/h (5 Bft) 97,87 %
07.04.2022 01:24 9,4 C 8,3 C 5,0 C 92 % 995,0 hPa 0,0 l/m 0 min 0 min 0 W/m 45,1 km/h (6 Bft) 97,87 %
07.04.2022 01:26 9,4 C 8,3 C 5,0 C 92 % 995,1 hPa 0,0 l/m 0 min 0 min 0 W/m 22,5 km/h (4 Bft) 100,00 %
07.04.2022 01:28 9,4 C 8,3 C 5,0 C 92 % 995,1 hPa 0,0 l/m 0 min 2 min 0 W/m 29,0 km/h (5 Bft) 97,83 %
07.04.2022 01:30 9,4 C 8,3 C 5,0 C 93 % 995,0 hPa 0,0 l/m 0 min 2 min 0 W/m 45,1 km/h (6 Bft) 100,00 %
07.04.2022 01:32 9,4 C 8,3 C 5,0 C 93 % 994,8 hPa 0,0 l/m 0 min 2 min 0 W/m 41,8 km/h (6 Bft) 100,00 %
07.04.2022 01:34 9,4 C 8,3 C 5,0 C 93 % 994,9 hPa 0,0 l/m 0 min 2 min 0 W/m 29,0 km/h (5 Bft) 97,87 %
07.04.2022 01:36 9,3 C 8,3 C 5,0 C 93 % 994,7 hPa 0,0 l/m 0 min 2 min 0 W/m 45,1 km/h (6 Bft) 95,74 %
07.04.2022 01:38 9,3 C 8,3 C 5,0 C 93 % 994,8 hPa 0,0 l/m 0 min 2 min 0 W/m 48,3 km/h (6 Bft) 93,62 %
07.04.2022 01:40 9,3 C 8,3 C 5,0 C 92 % 994,6 hPa 0,0 l/m 0 min 2 min 0 W/m 38,6 km/h (5 Bft) 97,83 %
07.04.2022 01:42 9,3 C 8,3 C 5,0 C 92 % 994,8 hPa 0,0 l/m 0 min 2 min 0 W/m 25,7 km/h (4 Bft) 95,74 %
07.04.2022 01:44 9,3 C 8,3 C 5,0 C 92 % 994,6 hPa 0,0 l/m 0 min 2 min 0 W/m 22,5 km/h (4 Bft) 95,74 %
07.04.2022 01:46 9,3 C 8,3 C 5,0 C 92 % 994,6 hPa 0,0 l/m 0 min 2 min 0 W/m 25,7 km/h (4 Bft) 95,74 %
07.04.2022 01:48 9,3 C 8,3 C 5,0 C 92 % 994,6 hPa 0,0 l/m 0 min 2 min 0 W/m 19,3 km/h (3 Bft) 91,49 %
07.04.2022 01:50 9,3 C 8,3 C 5,0 C 92 % 994,5 hPa 0,0 l/m 0 min 2 min 0 W/m 19,3 km/h (3 Bft) 95,74 %
07.04.2022 01:52 9,2 C 8,3 C 5,0 C 92 % 994,5 hPa 0,0 l/m 0 min 2 min 0 W/m 22,5 km/h (4 Bft) 93,48 %
07.04.2022 01:54 9,2 C 8,3 C 5,0 C 92 % 994,5 hPa 0,0 l/m 0 min 2 min 0 W/m 38,6 km/h (5 Bft) 93,62 %
07.04.2022 01:56 9,2 C 8,3 C 4,4 C 92 % 994,6 hPa 0,0 l/m 0 min 2 min 0 W/m 22,5 km/h (4 Bft) 95,74 %
07.04.2022 01:58 9,2 C 8,3 C 4,4 C 92 % 994,7 hPa 0,0 l/m 0 min 2 min 0 W/m 22,5 km/h (4 Bft) 95,74 %
07.04.2022 02:00 9,2 C 8,3 C 4,4 C 92 % 994,5 hPa 0,0 l/m 0 min 2 min 0 W/m 22,5 km/h (4 Bft) 93,62 %
07.04.2022 02:02 9,1 C 8,3 C 4,4 C 92 % 994,6 hPa 0,0 l/m 0 min 2 min 0 W/m 32,2 km/h (5 Bft) 93,62 %
07.04.2022 02:04 9,1 C 8,3 C 4,4 C 91 % 994,6 hPa 0,0 l/m 0 min 2 min 0 W/m 32,2 km/h (5 Bft) 91,30 %
07.04.2022 02:06 9,1 C 8,3 C 4,4 C 91 % 994,6 hPa 0,0 l/m 0 min 2 min 0 W/m 25,7 km/h (4 Bft) 93,62 %
07.04.2022 02:08 9,1 C 8,3 C 4,4 C 91 % 994,6 hPa 0,0 l/m 0 min 2 min 0 W/m 25,7 km/h (4 Bft) 91,49 %
07.04.2022 02:10 9,1 C 8,3 C 4,4 C 91 % 994,5 hPa 0,0 l/m 0 min 2 min 0 W/m 19,3 km/h (3 Bft) 95,74 %
07.04.2022 02:12 9,1 C 8,3 C 4,4 C 91 % 994,4 hPa 0,0 l/m 0 min 2 min 0 W/m 19,3 km/h (3 Bft) 95,74 %
07.04.2022 02:14 9,1 C 8,3 C 4,4 C 91 % 994,4 hPa 0,0 l/m 0 min 2 min 0 W/m 19,3 km/h (3 Bft) 95,74 %
07.04.2022 02:16 9,1 C 8,3 C 4,4 C 91 % 994,3 hPa 0,0 l/m 0 min 2 min 0 W/m 32,2 km/h (5 Bft) 93,48 %
07.04.2022 02:18 9,1 C 8,3 C 4,4 C 91 % 994,4 hPa 0,0 l/m 0 min 0 min 0 W/m 22,5 km/h (4 Bft) 95,74 %
07.04.2022 02:20 9,1 C 8,3 C 5,0 C 91 % 994,4 hPa 0,0 l/m 0 min 0 min 0 W/m 25,7 km/h (4 Bft) 95,74 %
07.04.2022 02:22 9,2 C 8,3 C 5,0 C 91 % 994,3 hPa 0,0 l/m 0 min 0 min 0 W/m 25,7 km/h (4 Bft) 93,62 %
07.04.2022 02:24 9,2 C 8,3 C 5,0 C 91 % 994,3 hPa 0,0 l/m 0 min 0 min 0 W/m 35,4 km/h (5 Bft) 95,74 %
07.04.2022 02:26 9,2 C 8,3 C 5,0 C 91 % 994,1 hPa 0,0 l/m 0 min 0 min 0 W/m 22,5 km/h (4 Bft) 95,65 %
07.04.2022 02:28 9,2 C 8,3 C 5,0 C 91 % 994,2 hPa 0,0 l/m 0 min 0 min 0 W/m 32,2 km/h (5 Bft) 95,74 %
07.04.2022 02:30 9,3 C 8,3 C 5,0 C 91 % 994,1 hPa 0,0 l/m 0 min 0 min 0 W/m 25,7 km/h (4 Bft) 100,00 %
07.04.2022 02:32 9,3 C 8,3 C 5,0 C 90 % 994,2 hPa 0,0 l/m 0 min 0 min 0 W/m 41,8 km/h (6 Bft) 97,87 %
07.04.2022 02:34 9,3 C 8,3 C 5,0 C 90 % 994,0 hPa 0,0 l/m 0 min 0 min 0 W/m 35,4 km/h (5 Bft) 100,00 %
07.04.2022 02:36 9,3 C 8,3 C 4,4 C 90 % 994,1 hPa 0,0 l/m 0 min 0 min 0 W/m 22,5 km/h (4 Bft) 100,00 %
07.04.2022 02:38 9,3 C 8,3 C 4,4 C 90 % 994,0 hPa 0,0 l/m 0 min 0 min 0 W/m 22,5 km/h (4 Bft) 97,83 %
07.04.2022 02:40 9,3 C 8,3 C 4,4 C 90 % 994,1 hPa 0,0 l/m 0 min 0 min 0 W/m 41,8 km/h (6 Bft) 100,00 %
07.04.2022 02:42 9,3 C 8,3 C 4,4 C 89 % 993,9 hPa 0,0 l/m 0 min 0 min 0 W/m 22,5 km/h (4 Bft) 97,87 %
07.04.2022 02:44 9,3 C 8,3 C 4,4 C 89 % 993,9 hPa 0,0 l/m 0 min 0 min 0 W/m 32,2 km/h (5 Bft) 100,00 %
07.04.2022 02:46 9,3 C 8,3 C 4,4 C 89 % 993,7 hPa 0,0 l/m 0 min 0 min 0 W/m 38,6 km/h (5 Bft) 95,74 %
07.04.2022 02:48 9,3 C 8,3 C 4,4 C 89 % 993,8 hPa 0,0 l/m 0 min 0 min 0 W/m 22,5 km/h (4 Bft) 97,87 %
07.04.2022 02:50 9,3 C 8,3 C 4,4 C 89 % 993,7 hPa 0,0 l/m 0 min 0 min 0 W/m 29,0 km/h (5 Bft) 95,65 %
07.04.2022 02:52 9,3 C 8,3 C 4,4 C 89 % 993,7 hPa 0,0 l/m 0 min 0 min 0 W/m 25,7 km/h (4 Bft) 97,87 %
07.04.2022 02:54 9,3 C 8,3 C 4,4 C 89 % 993,9 hPa 0,0 l/m 0 min 0 min 0 W/m 25,7 km/h (4 Bft) 95,74 %
07.04.2022 02:56 9,3 C 8,3 C 4,4 C 89 % 993,8 hPa 0,0 l/m 0 min 0 min 0 W/m 29,0 km/h (5 Bft) 97,87 %
07.04.2022 02:58 9,3 C 8,3 C 4,4 C 89 % 993,6 hPa 0,0 l/m 0 min 0 min 0 W/m 19,3 km/h (3 Bft) 97,87 %
07.04.2022 03:00 9,3 C 8,3 C 4,4 C 88 % 993,6 hPa 0,0 l/m 0 min 0 min 0 W/m 29,0 km/h (5 Bft) 97,87 %
07.04.2022 03:02 9,4 C 8,3 C 4,4 C 88 % 993,6 hPa 0,0 l/m 0 min 0 min 0 W/m 29,0 km/h (5 Bft) 97,83 %
07.04.2022 03:04 9,4 C 8,3 C 4,4 C 88 % 993,6 hPa 0,0 l/m 0 min 0 min 0 W/m 29,0 km/h (5 Bft) 97,87 %
07.04.2022 03:06 9,4 C 8,9 C 4,4 C 88 % 993,6 hPa 0,0 l/m 0 min 0 min 0 W/m 32,2 km/h (5 Bft) 97,87 %
07.04.2022 03:08 9,5 C 8,9 C 4,4 C 88 % 993,5 hPa 0,0 l/m 0 min 0 min 0 W/m 29,0 km/h (5 Bft) 97,87 %
07.04.2022 03:10 9,5 C 8,9 C 4,4 C 88 % 993,4 hPa 0,0 l/m 0 min 0 min 0 W/m 25,7 km/h (4 Bft) 97,87 %
07.04.2022 03:12 9,6 C 8,9 C 5,0 C 87 % 993,6 hPa 0,0 l/m 0 min 0 min 0 W/m 32,2 km/h (5 Bft) 97,87 %
07.04.2022 03:14 9,6 C 8,9 C 5,0 C 87 % 993,4 hPa 0,0 l/m 0 min 0 min 0 W/m 32,2 km/h (5 Bft) 97,83 %
07.04.2022 03:16 9,6 C 8,9 C 5,0 C 87 % 993,5 hPa 0,0 l/m 0 min 0 min 0 W/m 35,4 km/h (5 Bft) 97,87 %
07.04.2022 03:18 9,6 C 8,9 C 5,0 C 87 % 993,2 hPa 0,0 l/m 0 min 0 min 0 W/m 32,2 km/h (5 Bft) 100,00 %
07.04.2022 03:20 9,6 C 8,9 C 5,0 C 87 % 993,3 hPa 0,0 l/m 0 min 0 min 0 W/m 41,8 km/h (6 Bft) 100,00 %
07.04.2022 03:22 9,6 C 8,9 C 5,0 C 87 % 993,2 hPa 0,0 l/m 0 min 0 min 0 W/m 22,5 km/h (4 Bft) 97,87 %
07.04.2022 03:24 9,6 C 8,9 C 5,0 C 87 % 993,3 hPa 0,0 l/m 0 min 0 min 0 W/m 29,0 km/h (5 Bft) 100,00 %
07.04.2022 03:26 9,7 C 8,9 C 5,0 C 86 % 993,2 hPa 0,0 l/m 0 min 0 min 0 W/m 38,6 km/h (5 Bft) 100,00 %
07.04.2022 03:28 9,7 C 8,9 C 5,0 C 86 % 993,1 hPa 0,0 l/m 0 min 0 min 0 W/m 29,0 km/h (5 Bft) 100,00 %
07.04.2022 03:30 9,7 C 8,9 C 5,0 C 86 % 993,1 hPa 0,0 l/m 0 min 0 min 0 W/m 35,4 km/h (5 Bft) 100,00 %
07.04.2022 03:32 9,7 C 8,9 C 5,0 C 86 % 993,1 hPa 0,0 l/m 0 min 0 min 0 W/m 25,7 km/h (4 Bft) 95,74 %
07.04.2022 03:34 9,7 C 8,9 C 5,0 C 86 % 993,1 hPa 0,0 l/m 0 min 0 min 0 W/m 41,8 km/h (6 Bft) 100,00 %
07.04.2022 03:36 9,7 C 8,9 C 5,0 C 86 % 993,1 hPa 0,0 l/m 0 min 0 min 0 W/m 29,0 km/h (5 Bft) 97,87 %
07.04.2022 03:38 9,8 C 8,9 C 5,0 C 86 % 993,0 hPa 0,0 l/m 0 min 0 min 0 W/m 45,1 km/h (6 Bft) 100,00 %
07.04.2022 03:40 9,8 C 8,9 C 5,0 C 86 % 993,1 hPa 0,0 l/m 0 min 0 min 0 W/m 41,8 km/h (6 Bft) 100,00 %
07.04.2022 03:42 9,8 C 8,9 C 5,6 C 86 % 993,1 hPa 0,0 l/m 0 min 0 min 0 W/m 29,0 km/h (5 Bft) 100,00 %
07.04.2022 03:44 9,8 C 8,9 C 5,6 C 86 % 992,9 hPa 0,0 l/m 0 min 0 min 0 W/m 35,4 km/h (5 Bft) 97,87 %
07.04.2022 03:46 9,9 C 8,9 C 5,6 C 86 % 992,9 hPa 0,0 l/m 0 min 0 min 0 W/m 38,6 km/h (5 Bft) 100,00 %
07.04.2022 03:48 9,9 C 8,9 C 5,6 C 86 % 993,0 hPa 0,0 l/m 0 min 0 min 0 W/m 29,0 km/h (5 Bft) 100,00 %
07.04.2022 03:50 9,8 C 8,9 C 5,6 C 86 % 992,9 hPa 0,0 l/m 0 min 0 min 0 W/m 32,2 km/h (5 Bft) 100,00 %
07.04.2022 03:52 9,9 C 8,9 C 5,6 C 86 % 992,8 hPa 0,0 l/m 0 min 0 min 0 W/m 25,7 km/h (4 Bft) 100,00 %
07.04.2022 03:54 9,8 C 8,9 C 5,6 C 86 % 992,9 hPa 0,0 l/m 0 min 0 min 0 W/m 25,7 km/h (4 Bft) 97,87 %
07.04.2022 03:56 9,8 C 8,9 C 5,6 C 86 % 992,9 hPa 0,0 l/m 0 min 0 min 0 W/m 35,4 km/h (5 Bft) 100,00 %
07.04.2022 03:58 9,8 C 8,9 C 5,6 C 86 % 992,9 hPa 0,0 l/m 0 min 0 min 0 W/m 48,3 km/h (6 Bft) 100,00 %
07.04.2022 04:00 9,9 C 8,9 C 5,6 C 86 % 992,8 hPa 0,0 l/m 0 min 0 min 0 W/m 32,2 km/h (5 Bft) 100,00 %
07.04.2022 04:02 9,9 C 8,9 C 5,6 C 86 % 992,9 hPa 0,0 l/m 0 min 0 min 0 W/m 29,0 km/h (5 Bft) 100,00 %
07.04.2022 04:04 9,9 C 8,9 C 5,6 C 86 % 992,7 hPa 0,0 l/m 0 min 0 min 0 W/m 54,7 km/h (7 Bft) 95,74 %
07.04.2022 04:06 9,9 C 8,9 C 5,6 C 86 % 992,8 hPa 0,0 l/m 0 min 0 min 0 W/m 25,7 km/h (4 Bft) 100,00 %
07.04.2022 04:08 9,9 C 8,9 C 5,6 C 86 % 992,7 hPa 0,0 l/m 0 min 0 min 0 W/m 32,2 km/h (5 Bft) 100,00 %
07.04.2022 04:10 9,9 C 8,9 C 6,1 C 86 % 992,7 hPa 0,0 l/m 0 min 0 min 0 W/m 32,2 km/h (5 Bft) 100,00 %
07.04.2022 04:12 9,9 C 8,9 C 5,6 C 86 % 992,7 hPa 0,0 l/m 0 min 2 min 0 W/m 29,0 km/h (5 Bft) 97,83 %
07.04.2022 04:14 9,9 C 8,9 C 5,6 C 87 % 992,7 hPa 0,0 l/m 0 min 2 min 0 W/m 32,2 km/h (5 Bft) 97,87 %
07.04.2022 04:16 9,9 C 8,9 C 5,6 C 87 % 992,8 hPa 0,0 l/m 0 min 2 min 0 W/m 38,6 km/h (5 Bft) 95,74 %
07.04.2022 04:18 9,8 C 8,9 C 5,6 C 87 % 992,6 hPa 0,0 l/m 0 min 2 min 0 W/m 22,5 km/h (4 Bft) 97,87 %
07.04.2022 04:20 9,8 C 8,9 C 5,6 C 88 % 992,6 hPa 0,0 l/m 0 min 2 min 0 W/m 41,8 km/h (6 Bft) 97,87 %
07.04.2022 04:22 9,8 C 8,9 C 5,6 C 87 % 992,5 hPa 0,0 l/m 0 min 2 min 0 W/m 35,4 km/h (5 Bft) 97,87 %
07.04.2022 04:24 9,8 C 8,9 C 5,6 C 88 % 992,4 hPa 0,0 l/m 0 min 2 min 0 W/m 35,4 km/h (5 Bft) 97,83 %
07.04.2022 04:26 9,8 C 8,9 C 5,6 C 88 % 992,6 hPa 0,0 l/m 0 min 2 min 0 W/m 35,4 km/h (5 Bft) 97,87 %
07.04.2022 04:28 9,8 C 8,9 C 5,6 C 88 % 992,5 hPa 0,0 l/m 0 min 2 min 0 W/m 32,2 km/h (5 Bft) 97,87 %
07.04.2022 04:30 9,8 C 8,9 C 5,6 C 88 % 992,4 hPa 0,0 l/m 0 min 2 min 0 W/m 25,7 km/h (4 Bft) 97,87 %
07.04.2022 04:32 9,8 C 8,9 C 5,6 C 88 % 992,4 hPa 0,0 l/m 0 min 2 min 0 W/m 29,0 km/h (5 Bft) 95,74 %
07.04.2022 04:34 9,7 C 8,9 C 5,6 C 88 % 992,3 hPa 0,0 l/m 0 min 2 min 0 W/m 38,6 km/h (5 Bft) 95,74 %
07.04.2022 04:36 9,7 C 8,9 C 5,0 C 89 % 992,3 hPa 0,0 l/m 0 min 2 min 0 W/m 32,2 km/h (5 Bft) 97,83 %
07.04.2022 04:38 9,7 C 8,3 C 5,0 C 89 % 992,2 hPa 0,0 l/m 0 min 2 min 0 W/m 32,2 km/h (5 Bft) 97,87 %
07.04.2022 04:40 9,7 C 8,3 C 5,0 C 89 % 992,1 hPa 0,0 l/m 0 min 2 min 0 W/m 35,4 km/h (5 Bft) 93,62 %
07.04.2022 04:42 9,7 C 8,9 C 5,0 C 89 % 992,0 hPa 0,2 l/m 0 min 2 min 0 W/m 57,9 km/h (7 Bft) 91,49 %
07.04.2022 04:44 9,7 C 8,9 C 5,0 C 89 % 991,9 hPa 0,0 l/m 0 min 2 min 0 W/m 38,6 km/h (5 Bft) 91,49 %
07.04.2022 04:46 9,6 C 8,9 C 5,0 C 89 % 991,9 hPa 0,0 l/m 0 min 2 min 0 W/m 29,0 km/h (5 Bft) 91,49 %
07.04.2022 04:48 9,7 C 8,9 C 5,0 C 89 % 991,9 hPa 0,0 l/m 0 min 2 min 0 W/m 38,6 km/h (5 Bft) 93,48 %
07.04.2022 04:50 9,6 C 8,9 C 5,0 C 89 % 991,8 hPa 0,0 l/m 0 min 2 min 0 W/m 41,8 km/h (6 Bft) 93,62 %
07.04.2022 04:52 9,6 C 8,9 C 5,0 C 89 % 991,7 hPa 0,0 l/m 0 min 2 min 0 W/m 25,7 km/h (4 Bft) 93,62 %
07.04.2022 04:54 9,6 C 8,9 C 5,0 C 89 % 991,7 hPa 0,0 l/m 0 min 2 min 0 W/m 38,6 km/h (5 Bft) 93,62 %
07.04.2022 04:56 9,7 C 8,9 C 5,0 C 89 % 991,5 hPa 0,0 l/m 0 min 2 min 0 W/m 38,6 km/h (5 Bft) 95,74 %
07.04.2022 04:58 9,7 C 8,9 C 5,0 C 89 % 991,6 hPa 0,0 l/m 0 min 2 min 0 W/m 35,4 km/h (5 Bft) 93,62 %
07.04.2022 05:00 9,7 C 8,9 C 5,0 C 89 % 991,5 hPa 0,0 l/m 0 min 2 min 0 W/m 38,6 km/h (5 Bft) 95,65 %
07.04.2022 05:02 9,7 C 8,9 C 5,0 C 89 % 991,5 hPa 0,0 l/m 0 min 2 min 0 W/m 35,4 km/h (5 Bft) 93,62 %
07.04.2022 05:04 9,7 C 8,9 C 5,0 C 88 % 991,5 hPa 0,0 l/m 0 min 2 min 0 W/m 35,4 km/h (5 Bft) 95,74 %
07.04.2022 05:06 9,7 C 8,9 C 5,0 C 88 % 991,5 hPa 0,0 l/m 0 min 2 min 0 W/m 41,8 km/h (6 Bft) 93,62 %
07.04.2022 05:08 9,8 C 8,9 C 5,0 C 88 % 991,5 hPa 0,0 l/m 0 min 2 min 0 W/m 35,4 km/h (5 Bft) 95,74 %
07.04.2022 05:10 9,8 C 9,4 C 5,0 C 88 % 991,4 hPa 0,0 l/m 0 min 2 min 0 W/m 35,4 km/h (5 Bft) 95,74 %
07.04.2022 05:12 9,8 C 9,4 C 5,0 C 88 % 991,4 hPa 0,0 l/m 0 min 2 min 0 W/m 32,2 km/h (5 Bft) 97,83 %
07.04.2022 05:14 9,8 C 9,4 C 5,0 C 87 % 991,3 hPa 0,0 l/m 0 min 2 min 0 W/m 48,3 km/h (6 Bft) 97,87 %
07.04.2022 05:16 9,9 C 9,4 C 5,6 C 87 % 991,1 hPa 0,0 l/m 0 min 2 min 0 W/m 29,0 km/h (5 Bft) 95,74 %
07.04.2022 05:18 9,9 C 9,4 C 5,6 C 87 % 991,1 hPa 0,0 l/m 0 min 0 min 0 W/m 48,3 km/h (6 Bft) 95,74 %
07.04.2022 05:20 9,9 C 9,4 C 5,6 C 87 % 991,1 hPa 0,0 l/m 0 min 0 min 0 W/m 38,6 km/h (5 Bft) 97,87 %
07.04.2022 05:22 10,0 C 9,4 C 6,1 C 86 % 991,1 hPa 0,0 l/m 0 min 0 min 0 W/m 41,8 km/h (6 Bft) 97,83 %
07.04.2022 05:24 10,0 C 9,4 C 6,1 C 86 % 991,2 hPa 0,0 l/m 0 min 0 min 0 W/m 35,4 km/h (5 Bft) 97,87 %
07.04.2022 05:26 10,1 C 9,4 C 6,1 C 86 % 991,1 hPa 0,0 l/m 0 min 0 min 0 W/m 35,4 km/h (5 Bft) 97,87 %
07.04.2022 05:28 10,1 C 9,4 C 6,1 C 86 % 990,9 hPa 0,0 l/m 0 min 0 min 0 W/m 29,0 km/h (5 Bft) 97,87 %
07.04.2022 05:30 10,1 C 9,4 C 6,1 C 85 % 990,9 hPa 0,0 l/m 0 min 0 min 0 W/m 32,2 km/h (5 Bft) 100,00 %
07.04.2022 05:32 10,1 C 9,4 C 6,1 C 85 % 990,8 hPa 0,0 l/m 0 min 0 min 0 W/m 38,6 km/h (5 Bft) 97,87 %
07.04.2022 05:34 10,1 C 9,4 C 6,1 C 85 % 990,9 hPa 0,0 l/m 0 min 0 min 0 W/m 35,4 km/h (5 Bft) 97,83 %
07.04.2022 05:36 10,1 C 9,4 C 6,1 C 85 % 990,9 hPa 0,0 l/m 0 min 0 min 0 W/m 41,8 km/h (6 Bft) 97,87 %
07.04.2022 05:38 10,1 C 9,4 C 6,1 C 85 % 991,1 hPa 0,0 l/m 0 min 0 min 0 W/m 35,4 km/h (5 Bft) 100,00 %
07.04.2022 05:40 10,1 C 9,4 C 6,1 C 84 % 990,8 hPa 0,0 l/m 0 min 0 min 0 W/m 35,4 km/h (5 Bft) 100,00 %
07.04.2022 05:42 10,2 C 9,4 C 6,7 C 84 % 990,6 hPa 0,0 l/m 0 min 0 min 0 W/m 38,6 km/h (5 Bft) 100,00 %
07.04.2022 05:44 10,2 C 9,4 C 6,7 C 84 % 990,8 hPa 0,0 l/m 0 min 0 min 0 W/m 29,0 km/h (5 Bft) 97,87 %
07.04.2022 05:46 10,2 C 9,4 C 6,1 C 84 % 990,8 hPa 0,0 l/m 0 min 0 min 0 W/m 45,1 km/h (6 Bft) 97,83 %
07.04.2022 05:48 10,2 C 9,4 C 6,1 C 84 % 990,7 hPa 0,0 l/m 0 min 0 min 0 W/m 32,2 km/h (5 Bft) 100,00 %
07.04.2022 05:50 10,2 C 9,4 C 6,1 C 83 % 990,7 hPa 0,0 l/m 0 min 0 min 0 W/m 45,1 km/h (6 Bft) 100,00 %
07.04.2022 05:52 10,2 C 9,4 C 6,7 C 83 % 990,6 hPa 0,0 l/m 0 min 0 min 0 W/m 38,6 km/h (5 Bft) 100,00 %
07.04.2022 05:54 10,2 C 9,4 C 6,7 C 83 % 990,6 hPa 0,0 l/m 0 min 0 min 0 W/m 35,4 km/h (5 Bft) 100,00 %
07.04.2022 05:56 10,2 C 9,4 C 6,7 C 83 % 990,6 hPa 0,0 l/m 0 min 0 min 0 W/m 35,4 km/h (5 Bft) 97,87 %
07.04.2022 05:58 10,2 C 9,4 C 6,7 C 83 % 990,5 hPa 0,0 l/m 0 min 0 min 0 W/m 38,6 km/h (5 Bft) 100,00 %
07.04.2022 06:00 10,2 C 9,4 C 6,7 C 83 % 990,4 hPa 0,0 l/m 0 min 0 min 0 W/m 41,8 km/h (6 Bft) 100,00 %
07.04.2022 06:02 10,2 C 9,4 C 6,7 C 83 % 990,3 hPa 0,0 l/m 0 min 0 min 0 W/m 35,4 km/h (5 Bft) 100,00 %
07.04.2022 06:04 10,2 C 9,4 C 6,7 C 83 % 990,3 hPa 0,0 l/m 0 min 0 min 0 W/m 32,2 km/h (5 Bft) 100,00 %
07.04.2022 06:08 10,2 C 9,4 C 6,7 C 83 % 990,1 hPa 0,0 l/m 0 min 0 min 0 W/m 29,0 km/h (5 Bft) 100,00 %
07.04.2022 06:10 10,3 C 9,4 C 6,7 C 83 % 990,2 hPa 0,0 l/m 0 min 0 min 0 W/m 41,8 km/h (6 Bft) 100,00 %
07.04.2022 06:12 10,3 C 9,4 C 6,7 C 84 % 990,3 hPa 0,0 l/m 0 min 0 min 0 W/m 29,0 km/h (5 Bft) 100,00 %
07.04.2022 06:14 10,3 C 9,4 C 6,7 C 84 % 990,2 hPa 0,0 l/m 0 min 0 min 0 W/m 22,5 km/h (4 Bft) 100,00 %
07.04.2022 06:16 10,3 C 9,4 C 6,7 C 84 % 990,1 hPa 0,0 l/m 0 min 0 min 0 W/m 29,0 km/h (5 Bft) 100,00 %
07.04.2022 06:18 10,3 C 9,4 C 6,7 C 84 % 990,0 hPa 0,0 l/m 0 min 0 min 0 W/m 29,0 km/h (5 Bft) 100,00 %
07.04.2022 06:20 10,3 C 9,4 C 6,7 C 84 % 990,0 hPa 0,0 l/m 0 min 0 min 0 W/m 32,2 km/h (5 Bft) 100,00 %
07.04.2022 06:22 10,3 C 9,4 C 6,1 C 84 % 990,1 hPa 0,0 l/m 0 min 2 min 0 W/m 32,2 km/h (5 Bft) 100,00 %
07.04.2022 06:24 10,3 C 9,4 C 5,6 C 84 % 990,1 hPa 0,0 l/m 0 min 2 min 0 W/m 25,7 km/h (4 Bft) 100,00 %
07.04.2022 06:26 10,2 C 8,9 C 5,6 C 85 % 990,0 hPa 0,0 l/m 0 min 2 min 0 W/m 32,2 km/h (5 Bft) 100,00 %
07.04.2022 06:28 10,2 C 8,9 C 5,6 C 85 % 989,9 hPa 0,0 l/m 0 min 2 min 0 W/m 25,7 km/h (4 Bft) 97,87 %
07.04.2022 06:30 10,1 C 8,9 C 5,6 C 86 % 989,9 hPa 0,0 l/m 0 min 2 min 0 W/m 32,2 km/h (5 Bft) 97,87 %
07.04.2022 06:32 10,1 C 8,9 C 5,6 C 86 % 989,8 hPa 0,0 l/m 0 min 2 min 0 W/m 25,7 km/h (4 Bft) 97,87 %
07.04.2022 06:34 10,0 C 8,9 C 5,6 C 87 % 989,7 hPa 0,0 l/m 0 min 2 min 0 W/m 35,4 km/h (5 Bft) 100,00 %
07.04.2022 06:36 10,0 C 8,9 C 5,0 C 87 % 989,8 hPa 0,0 l/m 0 min 2 min 0 W/m 25,7 km/h (4 Bft) 97,87 %
07.04.2022 06:38 9,9 C 8,9 C 5,0 C 88 % 989,8 hPa 0,0 l/m 0 min 2 min 0 W/m 32,2 km/h (5 Bft) 97,87 %
07.04.2022 06:40 9,9 C 8,9 C 5,0 C 88 % 989,6 hPa 0,2 l/m 0 min 2 min 0 W/m 25,7 km/h (4 Bft) 95,74 %
07.04.2022 06:42 9,8 C 8,9 C 5,0 C 88 % 989,7 hPa 0,0 l/m 0 min 2 min 0 W/m 32,2 km/h (5 Bft) 97,87 %
07.04.2022 06:44 9,8 C 8,3 C 5,0 C 89 % 989,6 hPa 0,0 l/m 0 min 2 min 0 W/m 38,6 km/h (5 Bft) 97,87 %
07.04.2022 06:46 9,8 C 8,3 C 5,0 C 89 % 989,7 hPa 0,0 l/m 0 min 2 min 0 W/m 35,4 km/h (5 Bft) 95,65 %
07.04.2022 06:48 9,7 C 8,3 C 5,0 C 90 % 989,5 hPa 0,2 l/m 0 min 2 min 0 W/m 25,7 km/h (4 Bft) 95,74 %
07.04.2022 06:50 9,6 C 7,8 C 5,0 C 90 % 989,5 hPa 0,2 l/m 0 min 2 min 0 W/m 32,2 km/h (5 Bft) 95,74 %
07.04.2022 06:52 9,6 C 7,8 C 5,0 C 91 % 989,4 hPa 0,0 l/m 0 min 2 min 0 W/m 25,7 km/h (4 Bft) 95,74 %
07.04.2022 06:54 9,5 C 7,8 C 5,0 C 91 % 989,2 hPa 0,0 l/m 0 min 2 min 0 W/m 25,7 km/h (4 Bft) 93,62 %
07.04.2022 06:56 9,4 C 7,8 C 5,0 C 91 % 989,2 hPa 0,2 l/m 0 min 2 min 0 W/m 19,3 km/h (3 Bft) 95,65 %
07.04.2022 06:58 9,4 C 7,8 C 5,0 C 91 % 989,1 hPa 0,0 l/m 0 min 2 min 0 W/m 19,3 km/h (3 Bft) 95,74 %
07.04.2022 07:00 9,4 C 7,8 C 5,0 C 92 % 989,0 hPa 0,0 l/m 0 min 0 min 0 W/m 22,5 km/h (4 Bft) 95,74 %
07.04.2022 07:02 9,4 C 7,8 C 5,0 C 92 % 989,0 hPa 0,0 l/m 0 min 2 min 0 W/m 22,5 km/h (4 Bft) 93,62 %
07.04.2022 07:04 9,3 C 7,8 C 5,0 C 92 % 988,9 hPa 0,0 l/m 0 min 2 min 0 W/m 29,0 km/h (5 Bft) 95,74 %
07.04.2022 07:06 9,3 C 7,8 C 5,0 C 93 % 988,8 hPa 0,0 l/m 0 min 0 min 0 W/m 22,5 km/h (4 Bft) 95,74 %
07.04.2022 07:08 9,3 C 8,3 C 5,0 C 93 % 988,7 hPa 0,0 l/m 0 min 2 min 0 W/m 22,5 km/h (4 Bft) 95,65 %
07.04.2022 07:10 9,3 C 8,3 C 5,0 C 93 % 988,7 hPa 0,0 l/m 0 min 2 min 0 W/m 25,7 km/h (4 Bft) 97,87 %
07.04.2022 07:12 9,3 C 8,3 C 5,0 C 93 % 988,6 hPa 0,0 l/m 0 min 2 min 1 W/m 22,5 km/h (4 Bft) 97,87 %
07.04.2022 07:14 9,3 C 8,3 C 5,0 C 93 % 988,6 hPa 0,0 l/m 0 min 2 min 7 W/m 29,0 km/h (5 Bft) 95,74 %
07.04.2022 07:16 9,3 C 8,3 C 5,0 C 93 % 988,6 hPa 0,0 l/m 0 min 2 min 11 W/m 29,0 km/h (5 Bft) 97,87 %
07.04.2022 07:18 9,3 C 8,3 C 5,0 C 93 % 988,5 hPa 0,0 l/m 0 min 2 min 10 W/m 32,2 km/h (5 Bft) 97,87 %
07.04.2022 07:20 9,4 C 8,3 C 5,0 C 93 % 988,5 hPa 0,0 l/m 0 min 2 min 6 W/m 32,2 km/h (5 Bft) 95,65 %
07.04.2022 07:22 9,4 C 8,3 C 5,0 C 93 % 988,6 hPa 0,2 l/m 0 min 0 min 6 W/m 32,2 km/h (5 Bft) 95,74 %
07.04.2022 07:24 9,4 C 8,3 C 5,0 C 93 % 988,5 hPa 0,0 l/m 0 min 0 min 7 W/m 29,0 km/h (5 Bft) 97,87 %
07.04.2022 07:26 9,4 C 8,3 C 5,0 C 93 % 988,6 hPa 0,0 l/m 0 min 0 min 11 W/m 29,0 km/h (5 Bft) 95,74 %
07.04.2022 07:28 9,4 C 8,9 C 5,0 C 93 % 988,6 hPa 0,0 l/m 0 min 0 min 12 W/m 57,9 km/h (7 Bft) 97,87 %
07.04.2022 07:30 9,5 C 8,9 C 5,0 C 93 % 988,4 hPa 0,0 l/m 0 min 0 min 14 W/m 38,6 km/h (5 Bft) 97,87 %
07.04.2022 07:32 9,6 C 8,9 C 5,0 C 93 % 988,5 hPa 0,0 l/m 0 min 0 min 11 W/m 41,8 km/h (6 Bft) 97,83 %
07.04.2022 07:34 9,6 C 8,9 C 5,0 C 92 % 988,6 hPa 0,0 l/m 0 min 0 min 10 W/m 41,8 km/h (6 Bft) 97,87 %
07.04.2022 07:36 9,6 C 8,9 C 5,0 C 92 % 988,5 hPa 0,0 l/m 0 min 0 min 6 W/m 38,6 km/h (5 Bft) 97,87 %
07.04.2022 07:38 9,6 C 8,9 C 5,0 C 92 % 988,2 hPa 0,0 l/m 0 min 0 min 9 W/m 45,1 km/h (6 Bft) 97,87 %
07.04.2022 07:40 9,7 C 8,9 C 5,0 C 92 % 988,0 hPa 0,0 l/m 0 min 0 min 11 W/m 38,6 km/h (5 Bft) 97,87 %
07.04.2022 07:42 9,7 C 8,9 C 5,6 C 92 % 988,3 hPa 0,0 l/m 0 min 2 min 11 W/m 38,6 km/h (5 Bft) 97,87 %
07.04.2022 07:44 9,7 C 8,9 C 5,6 C 92 % 988,2 hPa 0,0 l/m 0 min 2 min 11 W/m 38,6 km/h (5 Bft) 97,83 %
07.04.2022 07:46 9,7 C 8,9 C 5,6 C 92 % 988,4 hPa 0,0 l/m 0 min 2 min 12 W/m 57,9 km/h (7 Bft) 97,87 %
07.04.2022 07:48 9,7 C 8,9 C 5,6 C 91 % 988,1 hPa 0,0 l/m 0 min 2 min 13 W/m 57,9 km/h (7 Bft) 97,87 %
07.04.2022 07:50 9,7 C 8,3 C 5,6 C 91 % 988,1 hPa 0,0 l/m 0 min 2 min 17 W/m 35,4 km/h (5 Bft) 97,87 %
07.04.2022 07:52 9,7 C 8,3 C 5,0 C 91 % 988,0 hPa 0,0 l/m 0 min 2 min 24 W/m 64,4 km/h (8 Bft) 95,74 %
07.04.2022 07:54 9,7 C 8,3 C 5,0 C 91 % 987,9 hPa 0,0 l/m 0 min 2 min 33 W/m 41,8 km/h (6 Bft) 97,83 %
07.04.2022 07:56 9,7 C 8,3 C 5,6 C 91 % 987,9 hPa 0,2 l/m 0 min 2 min 28 W/m 35,4 km/h (5 Bft) 95,74 %
07.04.2022 07:58 9,7 C 8,3 C 5,0 C 91 % 987,8 hPa 0,0 l/m 0 min 2 min 18 W/m 70,8 km/h (8 Bft) 97,87 %
07.04.2022 08:00 9,7 C 8,3 C 5,0 C 91 % 987,8 hPa 0,0 l/m 0 min 2 min 19 W/m 32,2 km/h (5 Bft) 97,87 %
07.04.2022 08:02 9,7 C 8,3 C 5,0 C 92 % 987,8 hPa 0,0 l/m 0 min 2 min 24 W/m 54,7 km/h (7 Bft) 97,87 %
07.04.2022 08:04 9,7 C 8,3 C 5,0 C 92 % 987,9 hPa 0,0 l/m 0 min 2 min 26 W/m 38,6 km/h (5 Bft) 95,74 %
07.04.2022 08:06 9,6 C 8,3 C 5,0 C 92 % 987,9 hPa 0,0 l/m 0 min 2 min 28 W/m 38,6 km/h (5 Bft) 97,83 %
07.04.2022 08:08 9,6 C 8,3 C 5,0 C 91 % 987,9 hPa 0,0 l/m 0 min 2 min 29 W/m 54,7 km/h (7 Bft) 97,87 %
07.04.2022 08:10 9,6 C 8,3 C 5,0 C 91 % 987,8 hPa 0,2 l/m 0 min 2 min 22 W/m 45,1 km/h (6 Bft) 95,74 %
07.04.2022 08:12 9,6 C 8,3 C 5,0 C 91 % 987,8 hPa 0,0 l/m 0 min 2 min 23 W/m 45,1 km/h (6 Bft) 97,87 %
07.04.2022 08:14 9,6 C 8,3 C 5,0 C 90 % 987,8 hPa 0,0 l/m 0 min 2 min 32 W/m 41,8 km/h (6 Bft) 97,87 %
07.04.2022 08:16 9,6 C 8,3 C 5,0 C 90 % 987,5 hPa 0,0 l/m 0 min 2 min 32 W/m 45,1 km/h (6 Bft) 97,87 %
07.04.2022 08:18 9,5 C 8,3 C 5,0 C 90 % 987,2 hPa 0,0 l/m 0 min 2 min 31 W/m 57,9 km/h (7 Bft) 97,83 %
07.04.2022 08:20 9,5 C 8,3 C 5,0 C 90 % 987,5 hPa 0,0 l/m 0 min 2 min 47 W/m 41,8 km/h (6 Bft) 95,74 %
07.04.2022 08:22 9,6 C 8,3 C 5,0 C 90 % 987,2 hPa 0,0 l/m 0 min 2 min 67 W/m 38,6 km/h (5 Bft) 97,87 %
07.04.2022 08:24 9,6 C 8,9 C 5,0 C 90 % 987,2 hPa 0,0 l/m 0 min 2 min 68 W/m 45,1 km/h (6 Bft) 97,87 %
07.04.2022 08:26 9,6 C 8,9 C 5,0 C 90 % 987,2 hPa 0,0 l/m 0 min 2 min 55 W/m 41,8 km/h (6 Bft) 95,74 %
07.04.2022 08:28 9,6 C 8,9 C 5,0 C 90 % 987,1 hPa 0,0 l/m 0 min 2 min 58 W/m 35,4 km/h (5 Bft) 100,00 %
07.04.2022 08:30 9,6 C 8,9 C 5,0 C 90 % 987,1 hPa 0,0 l/m 0 min 2 min 68 W/m 35,4 km/h (5 Bft) 97,83 %
07.04.2022 08:32 9,6 C 8,9 C 5,0 C 90 % 986,9 hPa 0,0 l/m 0 min 2 min 73 W/m 51,5 km/h (7 Bft) 97,87 %
07.04.2022 08:34 9,6 C 8,9 C 5,0 C 90 % 986,9 hPa 0,0 l/m 0 min 2 min 77 W/m 41,8 km/h (6 Bft) 97,87 %
07.04.2022 08:36 9,6 C 8,9 C 5,0 C 90 % 986,6 hPa 0,0 l/m 0 min 2 min 76 W/m 48,3 km/h (6 Bft) 95,74 %
07.04.2022 08:38 9,6 C 8,9 C 5,0 C 90 % 986,7 hPa 0,0 l/m 0 min 2 min 75 W/m 25,7 km/h (4 Bft) 97,87 %
07.04.2022 08:40 9,6 C 8,9 C 5,0 C 90 % 986,6 hPa 0,0 l/m 0 min 2 min 74 W/m 32,2 km/h (5 Bft) 97,87 %
07.04.2022 08:42 9,6 C 8,9 C 5,0 C 90 % 986,5 hPa 0,0 l/m 0 min 0 min 72 W/m 54,7 km/h (7 Bft) 97,83 %
07.04.2022 08:44 9,7 C 8,9 C 5,0 C 89 % 986,5 hPa 0,0 l/m 0 min 2 min 72 W/m 41,8 km/h (6 Bft) 95,74 %
07.04.2022 08:46 9,7 C 8,9 C 5,0 C 89 % 986,4 hPa 0,0 l/m 0 min 0 min 70 W/m 41,8 km/h (6 Bft) 95,74 %
07.04.2022 08:48 9,7 C 8,9 C 5,0 C 89 % 986,4 hPa 0,0 l/m 0 min 0 min 86 W/m 41,8 km/h (6 Bft) 93,62 %
07.04.2022 08:50 9,8 C 8,9 C 5,6 C 89 % 986,3 hPa 0,0 l/m 0 min 0 min 91 W/m 35,4 km/h (5 Bft) 97,87 %
07.04.2022 08:52 9,8 C 9,4 C 5,6 C 89 % 986,3 hPa 0,0 l/m 0 min 0 min 112 W/m 38,6 km/h (5 Bft) 97,83 %
07.04.2022 08:54 9,8 C 9,4 C 5,6 C 89 % 986,1 hPa 0,0 l/m 0 min 0 min 128 W/m 38,6 km/h (5 Bft) 97,87 %
07.04.2022 08:56 9,8 C 9,4 C 5,6 C 89 % 986,1 hPa 0,0 l/m 0 min 0 min 123 W/m 45,1 km/h (6 Bft) 97,87 %
07.04.2022 08:58 9,8 C 9,4 C 5,6 C 89 % 985,9 hPa 0,0 l/m 0 min 0 min 116 W/m 48,3 km/h (6 Bft) 97,87 %
07.04.2022 09:00 9,9 C 9,4 C 5,6 C 90 % 985,9 hPa 0,0 l/m 0 min 0 min 81 W/m 22,5 km/h (4 Bft) 97,87 %
07.04.2022 09:02 9,9 C 9,4 C 5,6 C 90 % 985,7 hPa 0,0 l/m 0 min 0 min 71 W/m 45,1 km/h (6 Bft) 97,87 %
07.04.2022 09:04 9,9 C 9,4 C 5,6 C 90 % 985,8 hPa 0,0 l/m 0 min 0 min 89 W/m 35,4 km/h (5 Bft) 97,83 %
07.04.2022 09:06 9,9 C 9,4 C 5,6 C 90 % 985,7 hPa 0,0 l/m 0 min 0 min 79 W/m 35,4 km/h (5 Bft) 100,00 %
07.04.2022 09:08 9,9 C 9,4 C 5,6 C 90 % 985,6 hPa 0,0 l/m 0 min 0 min 74 W/m 32,2 km/h (5 Bft) 95,74 %
07.04.2022 09:10 9,9 C 9,4 C 5,6 C 90 % 985,6 hPa 0,0 l/m 0 min 0 min 78 W/m 35,4 km/h (5 Bft) 97,87 %
07.04.2022 09:12 9,9 C 9,4 C 5,6 C 90 % 985,6 hPa 0,0 l/m 0 min 0 min 72 W/m 38,6 km/h (5 Bft) 100,00 %
07.04.2022 09:14 10,0 C 9,4 C 5,6 C 90 % 985,5 hPa 0,0 l/m 0 min 2 min 57 W/m 45,1 km/h (6 Bft) 100,00 %
07.04.2022 09:16 10,0 C 9,4 C 5,6 C 89 % 985,5 hPa 0,0 l/m 0 min 2 min 43 W/m 51,5 km/h (7 Bft) 97,83 %
07.04.2022 09:18 10,1 C 9,4 C 5,6 C 89 % 985,3 hPa 0,0 l/m 0 min 2 min 43 W/m 54,7 km/h (7 Bft) 97,87 %
07.04.2022 09:20 10,1 C 9,4 C 5,6 C 89 % 985,3 hPa 0,0 l/m 0 min 2 min 42 W/m 38,6 km/h (5 Bft) 100,00 %
07.04.2022 09:22 10,1 C 9,4 C 5,6 C 89 % 985,2 hPa 0,0 l/m 0 min 2 min 46 W/m 41,8 km/h (6 Bft) 100,00 %
07.04.2022 09:24 10,1 C 9,4 C 5,6 C 89 % 985,0 hPa 0,0 l/m 0 min 2 min 66 W/m 45,1 km/h (6 Bft) 97,87 %
07.04.2022 09:26 10,1 C 9,4 C 5,6 C 89 % 985,2 hPa 0,0 l/m 0 min 2 min 65 W/m 32,2 km/h (5 Bft) 97,87 %
07.04.2022 09:28 10,1 C 9,4 C 5,6 C 89 % 985,1 hPa 0,0 l/m 0 min 2 min 66 W/m 35,4 km/h (5 Bft) 97,83 %
07.04.2022 09:30 10,1 C 9,4 C 5,6 C 89 % 985,0 hPa 0,0 l/m 0 min 2 min 48 W/m 61,2 km/h (7 Bft) 97,87 %
07.04.2022 09:32 10,1 C 9,4 C 5,6 C 89 % 985,0 hPa 0,0 l/m 0 min 2 min 39 W/m 48,3 km/h (6 Bft) 97,87 %
07.04.2022 09:34 10,1 C 9,4 C 5,6 C 89 % 984,9 hPa 0,0 l/m 0 min 2 min 35 W/m 41,8 km/h (6 Bft) 97,87 %
07.04.2022 09:36 10,1 C 9,4 C 5,6 C 89 % 984,9 hPa 0,0 l/m 0 min 2 min 47 W/m 41,8 km/h (6 Bft) 97,87 %
07.04.2022 09:38 10,2 C 9,4 C 5,6 C 89 % 984,8 hPa 0,0 l/m 0 min 2 min 70 W/m 51,5 km/h (7 Bft) 98,15 %
07.04.2022 09:40 10,2 C 9,4 C 5,6 C 90 % 984,4 hPa 0,0 l/m 0 min 2 min 121 W/m 64,4 km/h (8 Bft) 97,87 %
07.04.2022 09:42 10,2 C 9,4 C 5,6 C 90 % 984,4 hPa 0,0 l/m 0 min 2 min 179 W/m 41,8 km/h (6 Bft) 93,62 %
07.04.2022 09:44 10,3 C 9,4 C 6,1 C 90 % 984,5 hPa 0,2 l/m 0 min 2 min 168 W/m 45,1 km/h (6 Bft) 97,87 %
07.04.2022 09:46 10,3 C 10,0 C 6,1 C 90 % 984,5 hPa 0,0 l/m 2 min 2 min 243 W/m 51,5 km/h (7 Bft) 95,74 %
07.04.2022 09:48 10,4 C 10,0 C 6,1 C 90 % 984,5 hPa 0,0 l/m 0 min 2 min 171 W/m 35,4 km/h (5 Bft) 97,83 %
07.04.2022 09:50 10,4 C 9,4 C 6,1 C 90 % 984,4 hPa 0,0 l/m 0 min 2 min 75 W/m 54,7 km/h (7 Bft) 97,87 %
07.04.2022 09:52 10,4 C 9,4 C 5,6 C 90 % 984,4 hPa 0,0 l/m 0 min 2 min 38 W/m 57,9 km/h (7 Bft) 97,87 %
07.04.2022 09:54 10,3 C 8,9 C 5,6 C 90 % 984,4 hPa 0,0 l/m 0 min 2 min 32 W/m 45,1 km/h (6 Bft) 97,87 %
07.04.2022 09:56 10,3 C 8,9 C 5,6 C 90 % 984,3 hPa 0,2 l/m 0 min 2 min 29 W/m 45,1 km/h (6 Bft) 95,74 %
07.04.2022 09:58 10,3 C 8,3 C 5,6 C 90 % 984,3 hPa 0,0 l/m 0 min 2 min 40 W/m 32,2 km/h (5 Bft) 97,87 %
07.04.2022 10:00 10,2 C 8,3 C 5,6 C 91 % 984,1 hPa 0,2 l/m 0 min 2 min 79 W/m 45,1 km/h (6 Bft) 97,83 %
07.04.2022 10:02 10,2 C 8,3 C 6,1 C 91 % 984,0 hPa 0,0 l/m 0 min 2 min 131 W/m 70,8 km/h (8 Bft) 95,74 %
07.04.2022 10:04 10,2 C 8,9 C 6,1 C 91 % 983,9 hPa 0,0 l/m 0 min 2 min 164 W/m 45,1 km/h (6 Bft) 97,87 %
07.04.2022 10:06 10,2 C 8,9 C 6,1 C 92 % 983,9 hPa 0,0 l/m 0 min 2 min 136 W/m 45,1 km/h (6 Bft) 97,87 %
07.04.2022 10:08 10,2 C 9,4 C 6,1 C 92 % 983,9 hPa 0,0 l/m 0 min 0 min 161 W/m 45,1 km/h (6 Bft) 97,87 %
07.04.2022 10:10 10,3 C 9,4 C 6,1 C 92 % 983,7 hPa 0,0 l/m 0 min 0 min 225 W/m 35,4 km/h (5 Bft) 97,87 %
07.04.2022 10:12 10,3 C 10,0 C 6,1 C 92 % 983,7 hPa 0,0 l/m 0 min 0 min 231 W/m 61,2 km/h (7 Bft) 100,00 %
07.04.2022 10:14 10,4 C 10,0 C 6,7 C 92 % 983,5 hPa 0,0 l/m 0 min 0 min 217 W/m 45,1 km/h (6 Bft) 100,00 %
07.04.2022 10:16 10,5 C 10,0 C 6,7 C 92 % 983,7 hPa 0,0 l/m 0 min 0 min 218 W/m 45,1 km/h (6 Bft) 100,00 %
07.04.2022 10:18 10,6 C 10,0 C 6,7 C 92 % 983,5 hPa 0,0 l/m 0 min 0 min 237 W/m 48,3 km/h (6 Bft) 100,00 %
07.04.2022 10:20 10,6 C 10,6 C 6,7 C 92 % 983,5 hPa 0,0 l/m 0 min 0 min 243 W/m 38,6 km/h (5 Bft) 100,00 %
07.04.2022 10:22 10,7 C 10,6 C 6,7 C 92 % 983,4 hPa 0,0 l/m 0 min 0 min 167 W/m 32,2 km/h (5 Bft) 97,87 %
07.04.2022 10:24 10,7 C 10,0 C 6,7 C 92 % 983,5 hPa 0,0 l/m 0 min 0 min 126 W/m 51,5 km/h (7 Bft) 100,00 %
07.04.2022 10:26 10,7 C 10,0 C 6,7 C 92 % 983,5 hPa 0,0 l/m 0 min 0 min 127 W/m 57,9 km/h (7 Bft) 100,00 %
07.04.2022 10:28 10,8 C 10,0 C 6,7 C 91 % 983,3 hPa 0,0 l/m 0 min 2 min 127 W/m 48,3 km/h (6 Bft) 97,87 %
07.04.2022 10:30 10,8 C 10,6 C 6,7 C 91 % 983,4 hPa 0,0 l/m 0 min 2 min 202 W/m 54,7 km/h (7 Bft) 97,87 %
07.04.2022 10:32 10,9 C 10,6 C 6,7 C 91 % 983,1 hPa 0,0 l/m 2 min 2 min 279 W/m 41,8 km/h (6 Bft) 97,87 %
07.04.2022 10:34 10,9 C 10,6 C 6,7 C 91 % 983,1 hPa 0,0 l/m 0 min 2 min 235 W/m 61,2 km/h (7 Bft) 95,74 %
07.04.2022 10:36 11,1 C 10,6 C 6,7 C 91 % 983,1 hPa 0,0 l/m 0 min 2 min 156 W/m 61,2 km/h (7 Bft) 95,65 %
07.04.2022 10:38 11,1 C 10,0 C 6,7 C 90 % 983,0 hPa 0,0 l/m 0 min 2 min 119 W/m 77,2 km/h (9 Bft) 95,74 %
07.04.2022 10:40 11,1 C 10,0 C 6,7 C 90 % 983,1 hPa 0,0 l/m 0 min 2 min 137 W/m 67,6 km/h (8 Bft) 95,74 %
07.04.2022 10:42 11,1 C 10,0 C 6,7 C 90 % 982,9 hPa 0,0 l/m 0 min 2 min 132 W/m 57,9 km/h (7 Bft) 91,49 %
07.04.2022 10:44 11,2 C 10,0 C 6,7 C 90 % 983,0 hPa 0,0 l/m 0 min 2 min 125 W/m 45,1 km/h (6 Bft) 93,62 %
07.04.2022 10:46 11,2 C 10,0 C 6,7 C 90 % 983,0 hPa 0,0 l/m 0 min 2 min 109 W/m 57,9 km/h (7 Bft) 95,65 %
07.04.2022 10:48 11,2 C 10,0 C 6,7 C 90 % 983,1 hPa 0,0 l/m 0 min 2 min 69 W/m 48,3 km/h (6 Bft) 95,74 %
07.04.2022 10:50 11,2 C 10,0 C 6,7 C 91 % 982,8 hPa 0,0 l/m 0 min 2 min 91 W/m 35,4 km/h (5 Bft) 95,74 %
07.04.2022 10:52 11,2 C 10,6 C 6,7 C 91 % 983,0 hPa 0,0 l/m 0 min 2 min 145 W/m 54,7 km/h (7 Bft) 95,74 %
07.04.2022 10:54 11,2 C 10,6 C 7,2 C 91 % 982,9 hPa 0,0 l/m 0 min 2 min 257 W/m 74,0 km/h (8 Bft) 93,62 %
07.04.2022 10:56 11,3 C 10,6 C 7,2 C 91 % 983,0 hPa 0,0 l/m 0 min 2 min 214 W/m 48,3 km/h (6 Bft) 95,74 %
07.04.2022 10:58 11,3 C 10,6 C 7,2 C 91 % 983,1 hPa 0,0 l/m 0 min 2 min 137 W/m 51,5 km/h (7 Bft) 95,65 %
07.04.2022 11:00 11,3 C 10,6 C 7,2 C 91 % 982,9 hPa 0,0 l/m 0 min 2 min 124 W/m 41,8 km/h (6 Bft) 93,62 %
07.04.2022 11:02 11,3 C 10,6 C 7,2 C 91 % 982,9 hPa 0,0 l/m 0 min 2 min 142 W/m 61,2 km/h (7 Bft) 95,74 %
07.04.2022 11:04 11,3 C 10,6 C 7,2 C 91 % 983,1 hPa 0,2 l/m 0 min 2 min 150 W/m 64,4 km/h (8 Bft) 97,87 %
07.04.2022 11:06 11,4 C 10,6 C 7,2 C 91 % 982,9 hPa 0,0 l/m 0 min 2 min 162 W/m 64,4 km/h (8 Bft) 97,87 %
07.04.2022 11:08 11,4 C 10,6 C 7,2 C 91 % 982,9 hPa 0,0 l/m 0 min 2 min 160 W/m 70,8 km/h (8 Bft) 97,87 %
07.04.2022 11:10 11,3 C 10,6 C 7,2 C 91 % 983,0 hPa 0,0 l/m 0 min 2 min 101 W/m 32,2 km/h (5 Bft) 97,83 %
07.04.2022 11:12 11,3 C 10,0 C 7,2 C 91 % 983,1 hPa 0,0 l/m 0 min 2 min 71 W/m 41,8 km/h (6 Bft) 97,87 %
07.04.2022 11:14 11,3 C 10,0 C 7,2 C 91 % 983,0 hPa 0,0 l/m 0 min 2 min 81 W/m 45,1 km/h (6 Bft) 97,87 %
07.04.2022 11:16 11,3 C 10,0 C 7,2 C 91 % 983,1 hPa 0,2 l/m 0 min 2 min 82 W/m 25,7 km/h (4 Bft) 95,74 %
07.04.2022 11:18 11,3 C 10,0 C 7,2 C 92 % 983,2 hPa 0,2 l/m 0 min 2 min 92 W/m 19,3 km/h (3 Bft) 97,87 %
07.04.2022 11:20 11,2 C 9,4 C 7,2 C 92 % 983,4 hPa 0,2 l/m 0 min 2 min 51 W/m 32,2 km/h (5 Bft) 100,00 %
07.04.2022 11:22 11,1 C 9,4 C 7,2 C 92 % 983,5 hPa 1,0 l/m 0 min 2 min 28 W/m 32,2 km/h (5 Bft) 100,00 %
07.04.2022 11:24 11,0 C 9,4 C 7,2 C 93 % 983,5 hPa 0,6 l/m 0 min 2 min 21 W/m 25,7 km/h (4 Bft) 100,00 %
07.04.2022 11:26 10,9 C 9,4 C 7,2 C 93 % 983,6 hPa 0,2 l/m 0 min 2 min 33 W/m 35,4 km/h (5 Bft) 97,87 %
07.04.2022 11:28 10,7 C 8,9 C 6,7 C 93 % 984,0 hPa 0,2 l/m 0 min 2 min 16 W/m 38,6 km/h (5 Bft) 97,87 %
07.04.2022 11:30 10,1 C 7,8 C 5,6 C 93 % 983,9 hPa 0,2 l/m 0 min 2 min 21 W/m 29,0 km/h (5 Bft) 100,00 %
07.04.2022 11:32 9,7 C 7,8 C 5,6 C 93 % 983,9 hPa 0,2 l/m 0 min 2 min 24 W/m 35,4 km/h (5 Bft) 100,00 %
07.04.2022 11:34 9,3 C 7,8 C 5,6 C 93 % 984,1 hPa 0,2 l/m 0 min 2 min 20 W/m 16,1 km/h (3 Bft) 97,83 %
07.04.2022 11:36 9,2 C 7,8 C 5,6 C 93 % 984,1 hPa 0,4 l/m 0 min 2 min 35 W/m 22,5 km/h (4 Bft) 100,00 %
07.04.2022 11:38 9,1 C 7,8 C 5,6 C 94 % 984,1 hPa 0,2 l/m 0 min 2 min 58 W/m 16,1 km/h (3 Bft) 97,87 %
07.04.2022 11:40 8,9 C 7,8 C 5,6 C 94 % 984,2 hPa 0,2 l/m 0 min 2 min 55 W/m 16,1 km/h (3 Bft) 100,00 %
07.04.2022 11:42 8,9 C 7,8 C 5,6 C 94 % 984,2 hPa 0,2 l/m 0 min 2 min 39 W/m 19,3 km/h (3 Bft) 100,00 %
07.04.2022 11:44 8,8 C 7,8 C 5,6 C 95 % 983,9 hPa 0,0 l/m 0 min 2 min 56 W/m 16,1 km/h (3 Bft) 100,00 %
07.04.2022 11:46 8,9 C 7,8 C 5,6 C 95 % 984,0 hPa 0,0 l/m 0 min 2 min 75 W/m 16,1 km/h (3 Bft) 100,00 %
07.04.2022 11:48 8,9 C 7,8 C 5,6 C 95 % 984,0 hPa 0,2 l/m 0 min 2 min 58 W/m 16,1 km/h (3 Bft) 100,00 %
07.04.2022 11:50 8,9 C 7,8 C 5,6 C 95 % 983,9 hPa 0,0 l/m 0 min 2 min 72 W/m 19,3 km/h (3 Bft) 100,00 %
07.04.2022 11:52 9,0 C 8,3 C 5,6 C 95 % 983,8 hPa 0,2 l/m 0 min 2 min 105 W/m 22,5 km/h (4 Bft) 98,31 %
07.04.2022 11:54 9,1 C 8,3 C 5,6 C 96 % 983,9 hPa 0,0 l/m 0 min 2 min 102 W/m 19,3 km/h (3 Bft) 97,87 %
07.04.2022 11:56 9,1 C 8,3 C 5,6 C 96 % 983,9 hPa 0,0 l/m 0 min 2 min 63 W/m 12,9 km/h (3 Bft) 100,00 %
07.04.2022 11:58 9,1 C 8,3 C 5,6 C 96 % 983,9 hPa 0,0 l/m 0 min 0 min 67 W/m 25,7 km/h (4 Bft) 100,00 %
07.04.2022 12:00 9,1 C 8,3 C 6,1 C 96 % 983,8 hPa 0,0 l/m 0 min 0 min 156 W/m 19,3 km/h (3 Bft) 100,00 %
07.04.2022 12:02 9,2 C 8,3 C 6,1 C 96 % 983,9 hPa 0,0 l/m 0 min 2 min 186 W/m 25,7 km/h (4 Bft) 97,87 %
07.04.2022 12:04 9,2 C 8,9 C 6,1 C 96 % 984,0 hPa 0,0 l/m 0 min 2 min 97 W/m 19,3 km/h (3 Bft) 100,00 %
07.04.2022 12:08 9,3 C 8,3 C 6,1 C 96 % 984,0 hPa 0,0 l/m 0 min 4 min 93 W/m 32,2 km/h (5 Bft) 98,94 %
07.04.2022 12:10 9,3 C 8,3 C 6,1 C 96 % 984,1 hPa 0,2 l/m 0 min 2 min 159 W/m 19,3 km/h (3 Bft) 98,15 %
07.04.2022 12:12 9,3 C 8,9 C 6,1 C 96 % 983,9 hPa 0,0 l/m 0 min 2 min 202 W/m 16,1 km/h (3 Bft) 94,74 %
07.04.2022 12:14 9,4 C 8,9 C 6,1 C 96 % 984,1 hPa 0,0 l/m 0 min 2 min 237 W/m 22,5 km/h (4 Bft) 93,75 %
07.04.2022 12:16 9,4 C 8,9 C 6,1 C 96 % 983,8 hPa 0,0 l/m 0 min 2 min 232 W/m 25,7 km/h (4 Bft) 94,34 %
07.04.2022 12:18 9,4 C 9,4 C 6,1 C 95 % 983,8 hPa 0,0 l/m 0 min 0 min 238 W/m 19,3 km/h (3 Bft) 97,87 %
07.04.2022 12:20 9,6 C 9,4 C 6,7 C 96 % 983,7 hPa 0,0 l/m 0 min 2 min 267 W/m 22,5 km/h (4 Bft) 97,96 %
07.04.2022 12:22 9,6 C 9,4 C 6,7 C 95 % 983,8 hPa 0,0 l/m 0 min 0 min 303 W/m 29,0 km/h (5 Bft) 95,74 %
07.04.2022 12:24 9,7 C 10,0 C 6,7 C 95 % 983,8 hPa 0,0 l/m 0 min 0 min 318 W/m 19,3 km/h (3 Bft) 93,62 %
07.04.2022 12:26 9,8 C 10,0 C 6,7 C 95 % 983,8 hPa 0,0 l/m 2 min 0 min 366 W/m 19,3 km/h (3 Bft) 93,62 %
07.04.2022 12:28 9,9 C 10,6 C 7,2 C 95 % 983,8 hPa 0,0 l/m 2 min 0 min 359 W/m 16,1 km/h (3 Bft) 94,74 %
07.04.2022 12:30 10,1 C 11,1 C 7,8 C 94 % 983,9 hPa 0,0 l/m 2 min 0 min 625 W/m 35,4 km/h (5 Bft) 95,74 %
07.04.2022 12:32 10,2 C 11,7 C 8,3 C 94 % 983,9 hPa 0,0 l/m 2 min 0 min 466 W/m 22,5 km/h (4 Bft) 93,88 %
07.04.2022 12:34 10,4 C 11,7 C 7,8 C 94 % 983,8 hPa 0,0 l/m 2 min 0 min 505 W/m 22,5 km/h (4 Bft) 96,00 %
07.04.2022 12:36 10,6 C 11,7 C 7,8 C 92 % 983,8 hPa 0,0 l/m 2 min 0 min 430 W/m 19,3 km/h (3 Bft) 94,29 %
07.04.2022 12:38 10,7 C 11,7 C 7,8 C 90 % 983,9 hPa 0,0 l/m 2 min 0 min 417 W/m 35,4 km/h (5 Bft) 96,43 %
07.04.2022 12:40 10,7 C 11,7 C 7,2 C 89 % 983,9 hPa 0,0 l/m 2 min 0 min 391 W/m 22,5 km/h (4 Bft) 96,00 %
07.04.2022 12:42 10,8 C 11,1 C 7,2 C 87 % 983,9 hPa 0,0 l/m 0 min 0 min 312 W/m 22,5 km/h (4 Bft) 97,14 %
07.04.2022 12:44 10,9 C 11,7 C 7,2 C 86 % 983,8 hPa 0,0 l/m 0 min 0 min 311 W/m 16,1 km/h (3 Bft) 94,55 %
07.04.2022 12:46 11,0 C 11,7 C 7,2 C 85 % 983,8 hPa 0,0 l/m 2 min 0 min 379 W/m 29,0 km/h (5 Bft) 95,74 %
07.04.2022 12:48 11,2 C 11,1 C 7,2 C 81 % 984,0 hPa 0,0 l/m 2 min 0 min 511 W/m 38,6 km/h (5 Bft) 96,00 %
07.04.2022 12:50 11,2 C 12,2 C 7,2 C 81 % 984,0 hPa 0,0 l/m 2 min 0 min 439 W/m 25,7 km/h (4 Bft) 94,29 %
07.04.2022 12:52 11,4 C 12,2 C 7,2 C 81 % 984,0 hPa 0,0 l/m 2 min 0 min 490 W/m 22,5 km/h (4 Bft) 96,43 %
07.04.2022 12:54 11,5 C 12,2 C 7,2 C 78 % 983,9 hPa 0,0 l/m 2 min 0 min 480 W/m 38,6 km/h (5 Bft) 95,92 %
07.04.2022 12:56 11,6 C 12,2 C 7,2 C 78 % 983,9 hPa 0,0 l/m 2 min 0 min 486 W/m 29,0 km/h (5 Bft) 97,22 %
07.04.2022 12:58 11,6 C 12,2 C 7,2 C 78 % 983,9 hPa 0,0 l/m 2 min 0 min 466 W/m 35,4 km/h (5 Bft) 96,36 %
07.04.2022 13:00 11,6 C 12,2 C 6,7 C 76 % 984,1 hPa 0,0 l/m 0 min 0 min 318 W/m 25,7 km/h (4 Bft) 96,00 %
07.04.2022 13:02 11,7 C 12,8 C 7,2 C 77 % 984,2 hPa 0,0 l/m 2 min 0 min 610 W/m 22,5 km/h (4 Bft) 100,00 %
07.04.2022 13:04 11,8 C 12,8 C 7,2 C 76 % 984,1 hPa 0,0 l/m 2 min 0 min 801 W/m 32,2 km/h (5 Bft) 98,11 %
07.04.2022 13:06 11,9 C 12,8 C 6,7 C 75 % 984,1 hPa 0,0 l/m 2 min 0 min 800 W/m 35,4 km/h (5 Bft) 100,00 %
07.04.2022 13:08 12,0 C 12,8 C 6,7 C 75 % 984,1 hPa 0,0 l/m 2 min 0 min 810 W/m 25,7 km/h (4 Bft) 100,00 %
07.04.2022 13:10 12,1 C 12,8 C 6,7 C 76 % 984,2 hPa 0,0 l/m 2 min 0 min 762 W/m 22,5 km/h (4 Bft) 100,00 %
07.04.2022 13:12 12,3 C 13,9 C 7,8 C 76 % 984,2 hPa 0,0 l/m 2 min 0 min 790 W/m 16,1 km/h (3 Bft) 100,00 %
07.04.2022 13:14 12,4 C 13,3 C 8,3 C 76 % 984,1 hPa 0,0 l/m 2 min 0 min 842 W/m 22,5 km/h (4 Bft) 100,00 %
07.04.2022 13:16 12,4 C 12,2 C 8,3 C 75 % 984,2 hPa 0,0 l/m 2 min 0 min 842 W/m 22,5 km/h (4 Bft) 97,87 %
07.04.2022 13:18 12,3 C 13,3 C 8,9 C 76 % 984,2 hPa 0,0 l/m 2 min 0 min 845 W/m 16,1 km/h (3 Bft) 100,00 %
07.04.2022 13:20 12,5 C 13,9 C 9,4 C 76 % 984,3 hPa 0,0 l/m 2 min 0 min 991 W/m 41,8 km/h (6 Bft) 100,00 %
07.04.2022 13:22 12,7 C 14,4 C 10,0 C 75 % 984,3 hPa 0,0 l/m 2 min 0 min 971 W/m 35,4 km/h (5 Bft) 100,00 %
07.04.2022 13:24 12,8 C 14,4 C 10,0 C 75 % 984,3 hPa 0,0 l/m 2 min 0 min 874 W/m 25,7 km/h (4 Bft) 98,00 %
07.04.2022 13:26 12,9 C 15,0 C 10,0 C 74 % 984,2 hPa 0,0 l/m 2 min 0 min 927 W/m 25,7 km/h (4 Bft) 98,00 %
07.04.2022 13:28 13,1 C 15,6 C 10,0 C 74 % 984,3 hPa 0,0 l/m 2 min 0 min 959 W/m 25,7 km/h (4 Bft) 97,14 %
07.04.2022 13:30 13,3 C 16,1 C 10,6 C 73 % 984,3 hPa 0,0 l/m 2 min 0 min 987 W/m 25,7 km/h (4 Bft) 94,23 %
07.04.2022 13:32 13,3 C 15,6 C 10,6 C 72 % 984,3 hPa 0,0 l/m 2 min 0 min 965 W/m 29,0 km/h (5 Bft) 98,00 %
07.04.2022 13:34 13,3 C 15,0 C 10,6 C 69 % 984,3 hPa 0,0 l/m 2 min 0 min 978 W/m 48,3 km/h (6 Bft) 97,87 %
07.04.2022 13:36 13,3 C 15,6 C 10,6 C 70 % 984,4 hPa 0,0 l/m 2 min 0 min 726 W/m 38,6 km/h (5 Bft) 96,00 %
07.04.2022 13:38 13,4 C 16,1 C 11,1 C 69 % 984,3 hPa 0,0 l/m 2 min 0 min 726 W/m 48,3 km/h (6 Bft) 100,00 %
07.04.2022 13:40 13,4 C 15,0 C 10,6 C 69 % 984,4 hPa 0,0 l/m 2 min 0 min 759 W/m 41,8 km/h (6 Bft) 96,36 %
07.04.2022 13:42 13,2 C 13,9 C 10,0 C 68 % 984,5 hPa 0,0 l/m 0 min 0 min 234 W/m 29,0 km/h (5 Bft) 97,96 %
07.04.2022 13:44 13,1 C 13,3 C 9,4 C 67 % 984,6 hPa 0,0 l/m 0 min 0 min 223 W/m 29,0 km/h (5 Bft) 97,87 %
07.04.2022 13:46 12,9 C 12,8 C 9,4 C 67 % 984,6 hPa 0,0 l/m 0 min 0 min 191 W/m 32,2 km/h (5 Bft) 97,87 %
07.04.2022 13:48 12,8 C 12,8 C 8,9 C 67 % 984,6 hPa 0,0 l/m 0 min 0 min 209 W/m 32,2 km/h (5 Bft) 97,92 %
07.04.2022 13:50 12,7 C 12,8 C 8,9 C 68 % 984,7 hPa 0,0 l/m 0 min 0 min 205 W/m 19,3 km/h (3 Bft) 97,87 %
07.04.2022 13:52 12,8 C 14,4 C 9,4 C 69 % 984,8 hPa 0,0 l/m 0 min 0 min 255 W/m 19,3 km/h (3 Bft) 95,65 %
07.04.2022 13:54 12,9 C 15,6 C 10,0 C 68 % 984,8 hPa 0,0 l/m 2 min 0 min 984 W/m 22,5 km/h (4 Bft) 97,87 %
07.04.2022 13:56 13,2 C 15,6 C 10,0 C 67 % 984,8 hPa 0,0 l/m 2 min 0 min 543 W/m 25,7 km/h (4 Bft) 97,14 %
07.04.2022 13:58 13,3 C 16,1 C 10,0 C 66 % 984,8 hPa 0,0 l/m 2 min 0 min 820 W/m 22,5 km/h (4 Bft) 96,61 %
07.04.2022 14:00 13,5 C 16,7 C 10,0 C 65 % 984,7 hPa 0,0 l/m 2 min 0 min 918 W/m 25,7 km/h (4 Bft) 97,14 %
07.04.2022 14:02 13,7 C 16,7 C 10,6 C 63 % 984,6 hPa 0,0 l/m 2 min 0 min 992 W/m 41,8 km/h (6 Bft) 97,87 %
07.04.2022 14:04 13,9 C 16,1 C 10,6 C 63 % 984,8 hPa 0,0 l/m 2 min 0 min 973 W/m 38,6 km/h (5 Bft) 98,11 %
07.04.2022 14:06 13,9 C 15,6 C 10,6 C 63 % 985,0 hPa 0,0 l/m 0 min 0 min 273 W/m 25,7 km/h (4 Bft) 97,83 %
07.04.2022 14:08 13,9 C 15,6 C 10,6 C 62 % 984,8 hPa 0,0 l/m 0 min 0 min 246 W/m 25,7 km/h (4 Bft) 98,00 %
07.04.2022 14:10 13,8 C 14,4 C 10,0 C 63 % 984,9 hPa 0,0 l/m 0 min 0 min 236 W/m 29,0 km/h (5 Bft) 97,87 %
07.04.2022 14:12 13,7 C 13,9 C 10,0 C 64 % 985,0 hPa 0,0 l/m 0 min 0 min 261 W/m 19,3 km/h (3 Bft) 100,00 %
07.04.2022 14:14 13,6 C 13,9 C 10,0 C 64 % 985,1 hPa 0,0 l/m 0 min 0 min 326 W/m 35,4 km/h (5 Bft) 100,00 %
07.04.2022 14:16 13,5 C 15,0 C 10,0 C 62 % 985,0 hPa 0,0 l/m 0 min 0 min 294 W/m 25,7 km/h (4 Bft) 97,14 %
07.04.2022 14:18 13,5 C 14,4 C 10,0 C 62 % 985,0 hPa 0,0 l/m 0 min 0 min 294 W/m 35,4 km/h (5 Bft) 98,18 %
07.04.2022 14:20 13,5 C 14,4 C 10,0 C 61 % 984,9 hPa 0,0 l/m 0 min 0 min 310 W/m 38,6 km/h (5 Bft) 100,00 %
07.04.2022 14:22 13,6 C 15,6 C 10,0 C 62 % 984,9 hPa 0,0 l/m 2 min 0 min 818 W/m 25,7 km/h (4 Bft) 100,00 %
07.04.2022 14:24 13,7 C 15,0 C 10,0 C 62 % 984,9 hPa 0,0 l/m 0 min 0 min 176 W/m 29,0 km/h (5 Bft) 100,00 %
07.04.2022 14:26 13,6 C 15,6 C 10,0 C 61 % 985,1 hPa 0,0 l/m 2 min 0 min 354 W/m 32,2 km/h (5 Bft) 95,74 %
07.04.2022 14:28 13,6 C 14,4 C 10,0 C 61 % 985,2 hPa 0,0 l/m 2 min 0 min 571 W/m 25,7 km/h (4 Bft) 97,14 %
07.04.2022 14:30 13,4 C 13,9 C 10,0 C 61 % 984,9 hPa 0,0 l/m 0 min 0 min 207 W/m 51,5 km/h (7 Bft) 100,00 %
07.04.2022 14:32 13,2 C 13,3 C 9,4 C 60 % 985,1 hPa 0,0 l/m 0 min 0 min 229 W/m 45,1 km/h (6 Bft) 100,00 %
07.04.2022 14:34 13,1 C 12,8 C 9,4 C 61 % 985,1 hPa 0,0 l/m 0 min 0 min 156 W/m 29,0 km/h (5 Bft) 100,00 %
07.04.2022 14:36 12,9 C 12,8 C 9,4 C 61 % 985,2 hPa 0,0 l/m 0 min 0 min 129 W/m 29,0 km/h (5 Bft) 96,00 %
07.04.2022 14:38 12,8 C 12,2 C 8,9 C 61 % 985,2 hPa 0,0 l/m 0 min 0 min 111 W/m 45,1 km/h (6 Bft) 97,87 %
07.04.2022 14:40 12,7 C 12,2 C 8,9 C 63 % 985,2 hPa 0,0 l/m 0 min 2 min 110 W/m 22,5 km/h (4 Bft) 100,00 %
07.04.2022 14:42 12,6 C 12,2 C 8,3 C 64 % 985,3 hPa 0,0 l/m 0 min 2 min 129 W/m 32,2 km/h (5 Bft) 97,83 %
07.04.2022 14:44 12,5 C 12,2 C 8,3 C 64 % 985,2 hPa 0,0 l/m 0 min 2 min 157 W/m 32,2 km/h (5 Bft) 97,87 %
07.04.2022 14:46 12,4 C 12,2 C 8,3 C 65 % 985,4 hPa 0,0 l/m 0 min 2 min 155 W/m 22,5 km/h (4 Bft) 95,74 %
07.04.2022 14:48 12,4 C 12,2 C 8,3 C 65 % 985,2 hPa 0,0 l/m 0 min 2 min 132 W/m 19,3 km/h (3 Bft) 96,43 %
07.04.2022 14:50 12,3 C 11,7 C 8,3 C 66 % 985,4 hPa 0,0 l/m 0 min 0 min 85 W/m 19,3 km/h (3 Bft) 97,37 %
07.04.2022 14:52 12,3 C 11,7 C 8,3 C 65 % 985,4 hPa 0,0 l/m 0 min 2 min 53 W/m 25,7 km/h (4 Bft) 97,87 %
07.04.2022 14:54 12,2 C 11,7 C 8,3 C 65 % 985,7 hPa 0,0 l/m 0 min 2 min 41 W/m 29,0 km/h (5 Bft) 97,83 %
07.04.2022 14:56 12,1 C 11,1 C 7,8 C 69 % 986,1 hPa 0,0 l/m 0 min 2 min 51 W/m 41,8 km/h (6 Bft) 97,87 %
07.04.2022 14:58 11,3 C 9,4 C 6,1 C 72 % 986,3 hPa 0,2 l/m 0 min 2 min 48 W/m 48,3 km/h (6 Bft) 97,87 %
07.04.2022 15:00 10,2 C 8,9 C 5,0 C 76 % 986,5 hPa 0,0 l/m 0 min 2 min 62 W/m 32,2 km/h (5 Bft) 95,74 %
07.04.2022 15:02 9,4 C 9,4 C 5,0 C 81 % 986,3 hPa 0,2 l/m 0 min 2 min 62 W/m 22,5 km/h (4 Bft) 97,87 %
07.04.2022 15:04 9,3 C 10,0 C 5,6 C 84 % 986,3 hPa 0,0 l/m 0 min 2 min 314 W/m 29,0 km/h (5 Bft) 98,18 %
07.04.2022 15:06 9,4 C 10,0 C 5,6 C 85 % 986,3 hPa 0,0 l/m 0 min 0 min 302 W/m 29,0 km/h (5 Bft) 97,87 %
07.04.2022 15:08 9,5 C 10,0 C 6,1 C 84 % 986,3 hPa 0,0 l/m 0 min 0 min 161 W/m 35,4 km/h (5 Bft) 100,00 %
07.04.2022 15:10 9,6 C 10,0 C 6,1 C 84 % 986,3 hPa 0,0 l/m 0 min 0 min 253 W/m 35,4 km/h (5 Bft) 100,00 %
07.04.2022 15:12 9,6 C 10,0 C 6,1 C 85 % 986,4 hPa 0,0 l/m 0 min 0 min 181 W/m 19,3 km/h (3 Bft) 97,87 %
07.04.2022 15:14 9,8 C 11,1 C 6,1 C 85 % 986,4 hPa 0,0 l/m 0 min 0 min 171 W/m 25,7 km/h (4 Bft) 98,18 %
07.04.2022 15:16 10,0 C 12,2 C 6,7 C 85 % 986,3 hPa 0,0 l/m 0 min 0 min 188 W/m 22,5 km/h (4 Bft) 97,44 %
07.04.2022 15:18 10,2 C 12,2 C 6,7 C 85 % 986,3 hPa 0,0 l/m 2 min 0 min 355 W/m 22,5 km/h (4 Bft) 100,00 %
07.04.2022 15:20 10,4 C 12,2 C 7,2 C 84 % 986,4 hPa 0,0 l/m 0 min 0 min 312 W/m 25,7 km/h (4 Bft) 100,00 %
07.04.2022 15:22 10,4 C 11,1 C 7,2 C 83 % 986,4 hPa 0,0 l/m 0 min 0 min 179 W/m 25,7 km/h (4 Bft) 100,00 %
07.04.2022 15:24 10,5 C 11,1 C 7,2 C 83 % 986,4 hPa 0,0 l/m 0 min 0 min 130 W/m 22,5 km/h (4 Bft) 100,00 %
07.04.2022 15:26 10,5 C 10,6 C 7,2 C 82 % 986,5 hPa 0,0 l/m 0 min 2 min 127 W/m 25,7 km/h (4 Bft) 100,00 %
07.04.2022 15:28 10,6 C 10,6 C 7,2 C 82 % 986,5 hPa 0,0 l/m 0 min 2 min 145 W/m 25,7 km/h (4 Bft) 100,00 %
07.04.2022 15:30 10,6 C 10,6 C 7,2 C 82 % 986,5 hPa 0,0 l/m 0 min 0 min 155 W/m 25,7 km/h (4 Bft) 100,00 %
07.04.2022 15:32 10,7 C 12,8 C 7,2 C 83 % 986,5 hPa 0,0 l/m 2 min 0 min 415 W/m 19,3 km/h (3 Bft) 100,00 %
07.04.2022 15:34 11,1 C 13,9 C 7,8 C 82 % 986,5 hPa 0,0 l/m 2 min 0 min 718 W/m 19,3 km/h (3 Bft) 100,00 %
07.04.2022 15:36 11,5 C 15,6 C 7,8 C 80 % 986,4 hPa 0,0 l/m 2 min 0 min 690 W/m 25,7 km/h (4 Bft) 98,11 %
07.04.2022 15:38 11,8 C 15,6 C 8,3 C 78 % 986,5 hPa 0,0 l/m 2 min 0 min 697 W/m 19,3 km/h (3 Bft) 97,83 %
07.04.2022 15:40 12,1 C 16,1 C 8,3 C 78 % 986,4 hPa 0,0 l/m 2 min 0 min 698 W/m 19,3 km/h (3 Bft) 100,00 %
07.04.2022 15:42 12,3 C 16,1 C 8,3 C 76 % 986,4 hPa 0,0 l/m 2 min 0 min 713 W/m 25,7 km/h (4 Bft) 100,00 %
07.04.2022 15:44 12,3 C 15,0 C 8,3 C 73 % 986,4 hPa 0,0 l/m 2 min 0 min 731 W/m 38,6 km/h (5 Bft) 94,74 %
07.04.2022 15:46 12,2 C 13,3 C 8,3 C 71 % 986,3 hPa 0,0 l/m 0 min 0 min 193 W/m 41,8 km/h (6 Bft) 97,87 %
07.04.2022 15:48 12,1 C 13,3 C 8,3 C 71 % 986,4 hPa 0,0 l/m 0 min 0 min 193 W/m 38,6 km/h (5 Bft) 100,00 %
07.04.2022 15:50 11,9 C 12,8 C 8,3 C 70 % 986,3 hPa 0,0 l/m 0 min 0 min 192 W/m 41,8 km/h (6 Bft) 100,00 %
07.04.2022 15:52 11,8 C 12,2 C 7,8 C 71 % 986,5 hPa 0,0 l/m 0 min 0 min 158 W/m 22,5 km/h (4 Bft) 100,00 %
07.04.2022 15:54 11,7 C 12,2 C 7,8 C 72 % 986,5 hPa 0,0 l/m 0 min 0 min 158 W/m 22,5 km/h (4 Bft) 97,87 %
07.04.2022 15:56 11,7 C 11,7 C 7,8 C 72 % 986,5 hPa 0,0 l/m 0 min 0 min 151 W/m 25,7 km/h (4 Bft) 100,00 %
07.04.2022 15:58 11,6 C 11,7 C 7,8 C 73 % 986,6 hPa 0,0 l/m 0 min 0 min 148 W/m 29,0 km/h (5 Bft) 98,21 %
07.04.2022 16:00 11,6 C 11,1 C 7,8 C 72 % 986,6 hPa 0,0 l/m 0 min 0 min 104 W/m 45,1 km/h (6 Bft) 65,79 %
07.04.2022 16:02 11,4 C 11,1 C 7,8 C 71 % 986,7 hPa 0,0 l/m 0 min 0 min 75 W/m 22,5 km/h (4 Bft) 73,68 %
07.04.2022 16:04 11,3 C 11,1 C 7,2 C 72 % 986,7 hPa 0,0 l/m 0 min 2 min 113 W/m 35,4 km/h (5 Bft) 98,18 %
07.04.2022 16:06 11,3 C 11,1 C 7,2 C 70 % 986,8 hPa 0,0 l/m 0 min 0 min 135 W/m 35,4 km/h (5 Bft) 98,00 %
07.04.2022 16:08 11,3 C 10,6 C 7,2 C 70 % 986,8 hPa 0,0 l/m 0 min 0 min 118 W/m 35,4 km/h (5 Bft) 97,37 %
07.04.2022 16:10 11,2 C 10,6 C 7,2 C 70 % 987,0 hPa 0,0 l/m 0 min 0 min 87 W/m 32,2 km/h (5 Bft) 97,87 %
07.04.2022 16:12 11,2 C 11,1 C 7,2 C 71 % 987,1 hPa 0,0 l/m 0 min 0 min 99 W/m 19,3 km/h (3 Bft) 98,18 %
07.04.2022 16:14 11,2 C 11,1 C 7,2 C 70 % 987,0 hPa 0,0 l/m 0 min 0 min 133 W/m 19,3 km/h (3 Bft) 97,37 %
07.04.2022 16:16 11,2 C 11,1 C 7,2 C 71 % 987,1 hPa 0,0 l/m 0 min 0 min 214 W/m 25,7 km/h (4 Bft) 95,74 %
07.04.2022 16:18 11,2 C 12,2 C 7,8 C 70 % 987,2 hPa 0,0 l/m 2 min 0 min 285 W/m 29,0 km/h (5 Bft) 92,00 %
07.04.2022 16:20 11,3 C 11,7 C 7,8 C 70 % 987,1 hPa 0,0 l/m 0 min 0 min 214 W/m 29,0 km/h (5 Bft) 95,74 %
07.04.2022 16:22 11,3 C 11,7 C 7,8 C 70 % 987,1 hPa 0,0 l/m 0 min 0 min 149 W/m 25,7 km/h (4 Bft) 95,74 %
07.04.2022 16:24 11,2 C 11,1 C 7,8 C 69 % 987,1 hPa 0,0 l/m 0 min 0 min 123 W/m 38,6 km/h (5 Bft) 95,45 %
07.04.2022 16:26 11,2 C 11,1 C 7,2 C 70 % 987,0 hPa 0,0 l/m 0 min 0 min 166 W/m 22,5 km/h (4 Bft) 91,30 %
07.04.2022 16:28 11,1 C 11,1 C 7,2 C 69 % 987,1 hPa 0,0 l/m 0 min 0 min 177 W/m 19,3 km/h (3 Bft) 94,00 %
07.04.2022 16:30 11,1 C 11,1 C 7,2 C 69 % 987,0 hPa 0,0 l/m 0 min 0 min 148 W/m 22,5 km/h (4 Bft) 91,49 %
07.04.2022 16:32 11,1 C 11,1 C 7,2 C 69 % 987,0 hPa 0,0 l/m 0 min 0 min 112 W/m 22,5 km/h (4 Bft) 95,45 %
07.04.2022 16:34 11,1 C 11,1 C 7,2 C 69 % 987,1 hPa 0,0 l/m 0 min 0 min 92 W/m 16,1 km/h (3 Bft) 94,00 %
07.04.2022 16:36 11,1 C 10,6 C 7,2 C 71 % 987,1 hPa 0,0 l/m 0 min 2 min 98 W/m 16,1 km/h (3 Bft) 95,65 %
07.04.2022 16:38 10,9 C 10,0 C 6,1 C 73 % 987,2 hPa 0,0 l/m 0 min 2 min 96 W/m 19,3 km/h (3 Bft) 93,18 %
07.04.2022 16:40 10,7 C 10,0 C 5,6 C 75 % 987,2 hPa 0,2 l/m 0 min 2 min 74 W/m 29,0 km/h (5 Bft) 93,62 %
07.04.2022 16:42 10,6 C 9,4 C 5,0 C 75 % 987,2 hPa 0,0 l/m 0 min 2 min 79 W/m 32,2 km/h (5 Bft) 96,00 %
07.04.2022 16:44 10,3 C 11,1 C 5,0 C 76 % 987,0 hPa 0,0 l/m 0 min 2 min 143 W/m 29,0 km/h (5 Bft) 95,74 %
07.04.2022 16:46 10,3 C 13,3 C 5,6 C 79 % 987,1 hPa 0,0 l/m 2 min 2 min 623 W/m 16,1 km/h (3 Bft) 90,38 %
07.04.2022 16:48 10,6 C 13,9 C 6,1 C 79 % 987,2 hPa 0,0 l/m 2 min 0 min 586 W/m 25,7 km/h (4 Bft) 94,87 %
07.04.2022 16:50 10,7 C 12,2 C 6,1 C 78 % 987,1 hPa 0,0 l/m 2 min 0 min 317 W/m 22,5 km/h (4 Bft) 91,84 %
07.04.2022 16:52 10,6 C 11,7 C 6,7 C 78 % 987,1 hPa 0,0 l/m 0 min 0 min 135 W/m 22,5 km/h (4 Bft) 91,49 %
07.04.2022 16:54 10,6 C 10,6 C 6,7 C 77 % 987,2 hPa 0,0 l/m 0 min 0 min 129 W/m 19,3 km/h (3 Bft) 93,62 %
07.04.2022 16:56 10,6 C 10,6 C 6,7 C 76 % 987,1 hPa 0,0 l/m 0 min 0 min 94 W/m 12,9 km/h (3 Bft) 95,74 %
07.04.2022 16:58 10,6 C 10,0 C 6,7 C 77 % 987,1 hPa 0,0 l/m 0 min 0 min 72 W/m 12,9 km/h (3 Bft) 93,18 %
07.04.2022 17:00 10,6 C 10,0 C 6,7 C 77 % 987,1 hPa 0,0 l/m 0 min 0 min 47 W/m 19,3 km/h (3 Bft) 95,92 %
07.04.2022 17:02 10,6 C 11,1 C 6,7 C 77 % 987,3 hPa 0,0 l/m 0 min 2 min 44 W/m 16,1 km/h (3 Bft) 92,45 %
07.04.2022 17:04 10,7 C 11,7 C 7,2 C 76 % 987,3 hPa 0,0 l/m 0 min 0 min 195 W/m 41,8 km/h (6 Bft) 95,12 %
07.04.2022 17:06 10,9 C 11,7 C 7,2 C 72 % 987,3 hPa 0,0 l/m 2 min 0 min 270 W/m 29,0 km/h (5 Bft) 95,45 %
07.04.2022 17:08 11,1 C 11,7 C 7,2 C 73 % 987,3 hPa 0,0 l/m 0 min 0 min 194 W/m 35,4 km/h (5 Bft) 100,00 %
07.04.2022 17:10 11,1 C 12,2 C 7,2 C 71 % 987,2 hPa 0,0 l/m 0 min 0 min 160 W/m 32,2 km/h (5 Bft) 97,87 %
07.04.2022 17:12 11,2 C 11,7 C 7,2 C 69 % 987,3 hPa 0,0 l/m 0 min 0 min 164 W/m 25,7 km/h (4 Bft) 100,00 %
07.04.2022 17:14 11,3 C 11,7 C 7,2 C 69 % 987,4 hPa 0,0 l/m 0 min 0 min 120 W/m 25,7 km/h (4 Bft) 100,00 %
07.04.2022 17:16 11,2 C 11,1 C 7,2 C 71 % 987,4 hPa 0,0 l/m 0 min 2 min 107 W/m 22,5 km/h (4 Bft) 98,11 %
07.04.2022 17:18 11,0 C 10,6 C 7,2 C 71 % 987,3 hPa 0,0 l/m 0 min 2 min 117 W/m 38,6 km/h (5 Bft) 100,00 %
07.04.2022 17:20 10,7 C 10,0 C 6,7 C 72 % 987,3 hPa 0,0 l/m 0 min 0 min 104 W/m 22,5 km/h (4 Bft) 100,00 %
07.04.2022 17:22 10,6 C 10,0 C 6,7 C 73 % 987,4 hPa 0,0 l/m 0 min 0 min 109 W/m 25,7 km/h (4 Bft) 100,00 %
07.04.2022 17:24 10,4 C 10,0 C 6,7 C 73 % 987,4 hPa 0,0 l/m 0 min 0 min 84 W/m 25,7 km/h (4 Bft) 97,96 %
07.04.2022 17:26 10,4 C 10,0 C 6,7 C 73 % 987,5 hPa 0,0 l/m 0 min 0 min 57 W/m 29,0 km/h (5 Bft) 100,00 %
07.04.2022 17:28 10,3 C 10,0 C 6,7 C 73 % 987,7 hPa 0,0 l/m 0 min 2 min 40 W/m 22,5 km/h (4 Bft) 100,00 %
07.04.2022 17:30 10,3 C 9,4 C 6,1 C 73 % 987,9 hPa 0,0 l/m 0 min 2 min 30 W/m 35,4 km/h (5 Bft) 100,00 %
07.04.2022 17:32 10,0 C 8,3 C 5,6 C 74 % 988,0 hPa 0,0 l/m 0 min 2 min 21 W/m 64,4 km/h (8 Bft) 100,00 %
07.04.2022 17:34 9,2 C 7,2 C 4,4 C 79 % 988,3 hPa 0,2 l/m 0 min 2 min 17 W/m 45,1 km/h (6 Bft) 100,00 %
07.04.2022 17:36 8,7 C 6,7 C 3,3 C 82 % 988,1 hPa 0,0 l/m 0 min 2 min 19 W/m 32,2 km/h (5 Bft) 100,00 %
07.04.2022 17:38 8,3 C 6,7 C 3,3 C 83 % 988,2 hPa 0,0 l/m 0 min 2 min 24 W/m 25,7 km/h (4 Bft) 100,00 %
07.04.2022 17:40 8,1 C 6,7 C 3,3 C 85 % 988,2 hPa 0,2 l/m 0 min 2 min 24 W/m 29,0 km/h (5 Bft) 100,00 %
07.04.2022 17:42 7,9 C 6,7 C 3,3 C 86 % 988,1 hPa 0,0 l/m 0 min 2 min 22 W/m 38,6 km/h (5 Bft) 100,00 %
07.04.2022 17:44 7,8 C 6,7 C 2,8 C 86 % 988,3 hPa 0,2 l/m 0 min 2 min 20 W/m 51,5 km/h (7 Bft) 100,00 %
07.04.2022 17:46 7,8 C 6,7 C 2,8 C 86 % 988,5 hPa 0,0 l/m 0 min 2 min 17 W/m 41,8 km/h (6 Bft) 100,00 %
07.04.2022 17:48 7,7 C 6,7 C 2,8 C 87 % 988,3 hPa 0,0 l/m 0 min 2 min 19 W/m 32,2 km/h (5 Bft) 98,11 %
07.04.2022 17:50 7,6 C 6,7 C 2,8 C 87 % 988,2 hPa 0,0 l/m 0 min 2 min 33 W/m 41,8 km/h (6 Bft) 97,87 %
07.04.2022 17:52 7,6 C 7,2 C 2,8 C 87 % 988,0 hPa 0,0 l/m 0 min 2 min 126 W/m 22,5 km/h (4 Bft) 97,37 %
07.04.2022 17:54 7,8 C 7,8 C 2,8 C 87 % 987,8 hPa 0,0 l/m 2 min 2 min 199 W/m 25,7 km/h (4 Bft) 100,00 %
07.04.2022 17:56 7,8 C 7,8 C 3,3 C 86 % 987,9 hPa 0,0 l/m 0 min 0 min 112 W/m 25,7 km/h (4 Bft) 100,00 %
07.04.2022 17:58 8,0 C 7,8 C 3,3 C 86 % 988,2 hPa 0,0 l/m 0 min 0 min 59 W/m 25,7 km/h (4 Bft) 100,00 %
07.04.2022 18:00 8,1 C 7,8 C 3,3 C 87 % 988,3 hPa 0,0 l/m 0 min 2 min 48 W/m 32,2 km/h (5 Bft) 100,00 %
07.04.2022 18:02 8,1 C 7,2 C 3,3 C 87 % 988,2 hPa 0,2 l/m 0 min 2 min 72 W/m 19,3 km/h (3 Bft) 52,38 %
07.04.2022 18:04 8,1 C 7,2 C 3,3 C 87 % 988,2 hPa 0,0 l/m 0 min 2 min 59 W/m 35,4 km/h (5 Bft) 100,00 %
07.04.2022 18:08 8,1 C 7,2 C 3,3 C 87 % 988,2 hPa 0,0 l/m 0 min 4 min 31 W/m 25,7 km/h (4 Bft) 99,03 %
07.04.2022 18:10 8,1 C 7,2 C 3,3 C 86 % 988,5 hPa 0,0 l/m 0 min 2 min 11 W/m 54,7 km/h (7 Bft) 97,83 %
07.04.2022 18:12 8,0 C 6,7 C 2,8 C 86 % 988,9 hPa 0,2 l/m 0 min 2 min 6 W/m 51,5 km/h (7 Bft) 100,00 %
07.04.2022 18:14 7,7 C 6,1 C 2,8 C 86 % 988,6 hPa 0,0 l/m 0 min 2 min 5 W/m 25,7 km/h (4 Bft) 100,00 %
07.04.2022 18:16 7,4 C 6,1 C 2,2 C 86 % 988,5 hPa 0,0 l/m 0 min 2 min 7 W/m 25,7 km/h (4 Bft) 97,87 %
07.04.2022 18:18 7,3 C 6,1 C 2,8 C 86 % 988,5 hPa 0,2 l/m 0 min 2 min 7 W/m 45,1 km/h (6 Bft) 100,00 %
07.04.2022 18:20 7,3 C 6,1 C 2,2 C 86 % 988,5 hPa 0,0 l/m 0 min 2 min 8 W/m 38,6 km/h (5 Bft) 100,00 %
07.04.2022 18:22 7,3 C 6,7 C 2,2 C 86 % 988,6 hPa 0,0 l/m 0 min 2 min 8 W/m 35,4 km/h (5 Bft) 100,00 %
07.04.2022 18:24 7,4 C 6,7 C 2,2 C 85 % 988,3 hPa 0,0 l/m 0 min 2 min 9 W/m 35,4 km/h (5 Bft) 96,36 %
07.04.2022 18:26 7,5 C 6,7 C 2,2 C 84 % 988,4 hPa 0,0 l/m 0 min 2 min 14 W/m 41,8 km/h (6 Bft) 97,87 %
07.04.2022 18:28 7,6 C 6,7 C 2,2 C 84 % 988,4 hPa 0,0 l/m 0 min 2 min 13 W/m 35,4 km/h (5 Bft) 97,87 %
07.04.2022 18:30 7,7 C 6,7 C 2,8 C 84 % 988,5 hPa 0,0 l/m 0 min 2 min 16 W/m 22,5 km/h (4 Bft) 97,87 %
07.04.2022 18:32 7,7 C 6,7 C 2,8 C 84 % 988,2 hPa 0,0 l/m 0 min 2 min 10 W/m 54,7 km/h (7 Bft) 93,62 %
07.04.2022 18:34 7,8 C 6,7 C 2,8 C 83 % 988,8 hPa 0,0 l/m 0 min 2 min 7 W/m 64,4 km/h (8 Bft) 97,96 %
07.04.2022 18:36 7,8 C 6,7 C 2,2 C 82 % 988,9 hPa 0,2 l/m 0 min 2 min 6 W/m 45,1 km/h (6 Bft) 97,87 %
07.04.2022 18:38 7,6 C 6,1 C 2,2 C 83 % 989,0 hPa 0,0 l/m 0 min 2 min 7 W/m 45,1 km/h (6 Bft) 97,62 %
07.04.2022 18:40 7,4 C 6,1 C 2,2 C 84 % 988,9 hPa 0,0 l/m 0 min 2 min 7 W/m 51,5 km/h (7 Bft) 95,74 %
07.04.2022 18:42 7,3 C 6,1 C 2,2 C 84 % 988,6 hPa 0,0 l/m 0 min 2 min 10 W/m 41,8 km/h (6 Bft) 97,87 %
07.04.2022 18:44 7,5 C 6,1 C 2,2 C 83 % 988,6 hPa 0,2 l/m 0 min 2 min 9 W/m 38,6 km/h (5 Bft) 95,74 %
07.04.2022 18:46 7,6 C 5,6 C 2,2 C 83 % 989,0 hPa 0,0 l/m 0 min 2 min 8 W/m 35,4 km/h (5 Bft) 97,96 %
07.04.2022 18:48 7,7 C 5,6 C 2,2 C 82 % 988,7 hPa 0,0 l/m 0 min 2 min 13 W/m 38,6 km/h (5 Bft) 95,92 %
07.04.2022 18:50 7,7 C 5,6 C 2,2 C 82 % 988,8 hPa 0,0 l/m 0 min 2 min 19 W/m 45,1 km/h (6 Bft) 95,74 %
07.04.2022 18:52 7,7 C 6,1 C 2,2 C 82 % 988,8 hPa 0,0 l/m 0 min 2 min 23 W/m 38,6 km/h (5 Bft) 95,74 %
07.04.2022 18:54 7,7 C 6,7 C 2,2 C 82 % 988,4 hPa 0,0 l/m 0 min 2 min 32 W/m 35,4 km/h (5 Bft) 97,62 %
07.04.2022 18:56 7,7 C 6,7 C 2,2 C 82 % 988,5 hPa 0,0 l/m 0 min 2 min 45 W/m 25,7 km/h (4 Bft) 100,00 %
07.04.2022 18:58 7,7 C 6,7 C 2,2 C 82 % 988,6 hPa 0,0 l/m 0 min 0 min 46 W/m 22,5 km/h (4 Bft) 97,87 %
07.04.2022 19:00 7,7 C 6,7 C 2,2 C 82 % 988,6 hPa 0,0 l/m 0 min 0 min 40 W/m 25,7 km/h (4 Bft) 97,96 %
07.04.2022 19:02 7,7 C 6,7 C 2,2 C 82 % 988,6 hPa 0,0 l/m 0 min 0 min 31 W/m 25,7 km/h (4 Bft) 95,74 %
07.04.2022 19:04 7,7 C 6,7 C 2,2 C 82 % 988,8 hPa 0,0 l/m 0 min 0 min 21 W/m 19,3 km/h (3 Bft) 100,00 %
07.04.2022 19:06 7,8 C 6,7 C 2,2 C 82 % 988,9 hPa 0,0 l/m 0 min 0 min 15 W/m 35,4 km/h (5 Bft) 96,23 %
07.04.2022 19:08 7,9 C 6,7 C 2,2 C 81 % 989,1 hPa 0,0 l/m 0 min 0 min 11 W/m 45,1 km/h (6 Bft) 95,65 %
07.04.2022 19:10 8,0 C 6,7 C 2,2 C 79 % 989,1 hPa 0,2 l/m 0 min 2 min 7 W/m 51,5 km/h (7 Bft) 98,00 %
07.04.2022 19:12 8,0 C 6,7 C 2,2 C 78 % 989,0 hPa 0,0 l/m 0 min 2 min 10 W/m 38,6 km/h (5 Bft) 97,87 %
07.04.2022 19:14 7,9 C 6,1 C 2,2 C 79 % 989,1 hPa 0,0 l/m 0 min 2 min 17 W/m 25,7 km/h (4 Bft) 97,87 %
07.04.2022 19:16 7,8 C 6,1 C 2,2 C 79 % 989,1 hPa 0,0 l/m 0 min 2 min 33 W/m 16,1 km/h (3 Bft) 98,00 %
07.04.2022 19:18 7,7 C 6,1 C 2,2 C 80 % 989,0 hPa 0,0 l/m 0 min 0 min 48 W/m 25,7 km/h (4 Bft) 97,83 %
07.04.2022 19:20 7,6 C 6,1 C 2,2 C 80 % 989,0 hPa 0,0 l/m 0 min 0 min 46 W/m 25,7 km/h (4 Bft) 94,44 %
07.04.2022 19:22 7,6 C 6,1 C 2,2 C 80 % 989,1 hPa 0,0 l/m 0 min 0 min 35 W/m 19,3 km/h (3 Bft) 94,23 %
07.04.2022 19:24 7,6 C 6,1 C 2,2 C 80 % 989,2 hPa 0,0 l/m 0 min 0 min 33 W/m 29,0 km/h (5 Bft) 98,00 %
07.04.2022 19:26 7,6 C 6,7 C 2,2 C 80 % 989,1 hPa 0,0 l/m 0 min 0 min 39 W/m 19,3 km/h (3 Bft) 98,00 %
07.04.2022 19:28 7,7 C 6,7 C 2,2 C 79 % 988,8 hPa 0,0 l/m 0 min 0 min 56 W/m 48,3 km/h (6 Bft) 100,00 %
07.04.2022 19:30 7,9 C 7,2 C 2,2 C 78 % 988,7 hPa 0,0 l/m 2 min 2 min 91 W/m 29,0 km/h (5 Bft) 100,00 %
07.04.2022 19:32 8,2 C 7,2 C 2,8 C 76 % 988,6 hPa 0,0 l/m 2 min 2 min 93 W/m 38,6 km/h (5 Bft) 100,00 %
07.04.2022 19:34 8,4 C 7,2 C 2,8 C 75 % 988,8 hPa 0,0 l/m 2 min 0 min 59 W/m 51,5 km/h (7 Bft) 100,00 %
07.04.2022 19:36 8,6 C 7,8 C 2,8 C 73 % 988,9 hPa 0,0 l/m 0 min 0 min 40 W/m 35,4 km/h (5 Bft) 100,00 %
07.04.2022 19:38 8,7 C 7,2 C 2,8 C 73 % 989,0 hPa 0,0 l/m 0 min 0 min 27 W/m 25,7 km/h (4 Bft) 100,00 %
07.04.2022 19:40 8,7 C 7,2 C 2,8 C 73 % 989,0 hPa 0,0 l/m 0 min 0 min 19 W/m 35,4 km/h (5 Bft) 100,00 %
07.04.2022 19:42 8,8 C 7,2 C 2,8 C 72 % 989,1 hPa 0,0 l/m 0 min 0 min 18 W/m 19,3 km/h (3 Bft) 97,83 %
07.04.2022 19:44 8,8 C 7,2 C 2,8 C 73 % 989,2 hPa 0,0 l/m 0 min 0 min 19 W/m 16,1 km/h (3 Bft) 98,00 %
07.04.2022 19:46 8,7 C 7,2 C 2,8 C 73 % 989,4 hPa 0,0 l/m 0 min 0 min 16 W/m 29,0 km/h (5 Bft) 97,87 %
07.04.2022 19:48 8,7 C 7,2 C 2,8 C 74 % 989,4 hPa 0,0 l/m 0 min 0 min 14 W/m 25,7 km/h (4 Bft) 97,14 %
07.04.2022 19:50 8,6 C 7,2 C 2,8 C 75 % 989,2 hPa 0,0 l/m 0 min 0 min 17 W/m 32,2 km/h (5 Bft) 98,21 %
07.04.2022 19:52 8,6 C 7,2 C 2,8 C 75 % 989,2 hPa 0,0 l/m 2 min 0 min 30 W/m 32,2 km/h (5 Bft) 98,00 %
07.04.2022 19:54 8,6 C 7,2 C 2,8 C 75 % 989,4 hPa 0,0 l/m 2 min 0 min 42 W/m 41,8 km/h (6 Bft) 97,14 %
07.04.2022 19:56 8,7 C 7,2 C 2,8 C 74 % 989,3 hPa 0,0 l/m 2 min 0 min 29 W/m 29,0 km/h (5 Bft) 96,36 %
07.04.2022 19:58 8,7 C 7,8 C 2,8 C 74 % 989,3 hPa 0,0 l/m 2 min 0 min 22 W/m 25,7 km/h (4 Bft) 95,74 %
07.04.2022 20:00 8,7 C 7,8 C 3,3 C 74 % 989,3 hPa 0,0 l/m 0 min 0 min 17 W/m 25,7 km/h (4 Bft) 97,87 %
07.04.2022 20:02 8,7 C 7,8 C 3,3 C 74 % 989,4 hPa 0,0 l/m 0 min 0 min 11 W/m 19,3 km/h (3 Bft) 98,00 %
07.04.2022 20:04 8,7 C 7,8 C 3,3 C 75 % 989,3 hPa 0,0 l/m 0 min 0 min 8 W/m 22,5 km/h (4 Bft) 97,37 %
07.04.2022 20:06 8,8 C 7,8 C 3,3 C 75 % 989,3 hPa 0,0 l/m 0 min 0 min 7 W/m 22,5 km/h (4 Bft) 95,74 %
07.04.2022 20:08 8,8 C 7,8 C 3,3 C 75 % 989,4 hPa 0,0 l/m 0 min 0 min 5 W/m 16,1 km/h (3 Bft) 95,65 %
07.04.2022 20:10 8,8 C 7,8 C 3,3 C 75 % 989,3 hPa 0,0 l/m 0 min 0 min 5 W/m 16,1 km/h (3 Bft) 95,74 %
07.04.2022 20:12 8,8 C 7,8 C 3,3 C 76 % 989,4 hPa 0,0 l/m 0 min 0 min 5 W/m 29,0 km/h (5 Bft) 95,74 %
07.04.2022 20:14 8,8 C 7,8 C 3,3 C 76 % 989,4 hPa 0,0 l/m 0 min 2 min 0 W/m 22,5 km/h (4 Bft) 94,64 %
07.04.2022 20:16 8,8 C 7,8 C 3,3 C 77 % 989,4 hPa 0,0 l/m 0 min 2 min 0 W/m 25,7 km/h (4 Bft) 93,48 %
07.04.2022 20:18 8,8 C 7,8 C 3,3 C 77 % 989,3 hPa 0,0 l/m 0 min 2 min 0 W/m 16,1 km/h (3 Bft) 95,74 %
07.04.2022 20:20 8,8 C 7,8 C 3,3 C 77 % 989,4 hPa 0,0 l/m 0 min 2 min 0 W/m 22,5 km/h (4 Bft) 94,74 %
07.04.2022 20:22 8,8 C 7,8 C 3,3 C 78 % 989,5 hPa 0,0 l/m 0 min 0 min 0 W/m 19,3 km/h (3 Bft) 95,74 %
07.04.2022 20:24 8,8 C 7,8 C 3,3 C 78 % 989,4 hPa 0,0 l/m 0 min 0 min 0 W/m 25,7 km/h (4 Bft) 95,74 %
07.04.2022 20:26 8,7 C 7,8 C 3,3 C 78 % 989,6 hPa 0,0 l/m 0 min 0 min 0 W/m 25,7 km/h (4 Bft) 95,74 %
07.04.2022 20:28 8,8 C 7,8 C 3,3 C 78 % 989,7 hPa 0,0 l/m 0 min 0 min 0 W/m 16,1 km/h (3 Bft) 95,74 %
07.04.2022 20:30 8,8 C 7,8 C 3,3 C 79 % 989,8 hPa 0,0 l/m 0 min 2 min 0 W/m 19,3 km/h (3 Bft) 96,36 %
07.04.2022 20:32 8,8 C 8,3 C 3,3 C 78 % 989,7 hPa 0,0 l/m 0 min 2 min 0 W/m 35,4 km/h (5 Bft) 97,37 %
07.04.2022 20:34 8,9 C 8,3 C 3,3 C 78 % 989,8 hPa 0,0 l/m 0 min 2 min 0 W/m 19,3 km/h (3 Bft) 95,74 %
07.04.2022 20:36 8,9 C 8,3 C 3,3 C 79 % 989,9 hPa 0,0 l/m 0 min 2 min 0 W/m 16,1 km/h (3 Bft) 91,49 %
07.04.2022 20:38 8,9 C 8,3 C 3,3 C 78 % 989,9 hPa 0,0 l/m 0 min 2 min 0 W/m 29,0 km/h (5 Bft) 95,74 %
07.04.2022 20:40 9,0 C 8,3 C 3,3 C 78 % 990,0 hPa 0,0 l/m 0 min 2 min 0 W/m 41,8 km/h (6 Bft) 100,00 %
07.04.2022 20:42 9,1 C 8,3 C 3,9 C 77 % 990,1 hPa 0,0 l/m 0 min 2 min 0 W/m 38,6 km/h (5 Bft) 97,83 %
07.04.2022 20:44 9,2 C 8,3 C 4,4 C 76 % 990,1 hPa 0,0 l/m 0 min 2 min 0 W/m 25,7 km/h (4 Bft) 97,87 %
07.04.2022 20:46 9,3 C 8,3 C 4,4 C 76 % 990,1 hPa 0,0 l/m 0 min 0 min 0 W/m 25,7 km/h (4 Bft) 100,00 %
07.04.2022 20:48 9,3 C 8,9 C 4,4 C 75 % 990,2 hPa 0,0 l/m 0 min 2 min 0 W/m 25,7 km/h (4 Bft) 100,00 %
07.04.2022 20:50 9,4 C 8,9 C 5,0 C 75 % 990,3 hPa 0,0 l/m 0 min 2 min 0 W/m 25,7 km/h (4 Bft) 97,87 %
07.04.2022 20:52 9,4 C 8,3 C 5,0 C 75 % 990,3 hPa 0,0 l/m 0 min 2 min 0 W/m 29,0 km/h (5 Bft) 95,74 %
07.04.2022 20:54 9,4 C 8,3 C 5,0 C 75 % 990,3 hPa 0,0 l/m 0 min 0 min 0 W/m 25,7 km/h (4 Bft) 100,00 %
07.04.2022 20:56 9,4 C 8,9 C 5,0 C 75 % 990,3 hPa 0,0 l/m 0 min 0 min 0 W/m 22,5 km/h (4 Bft) 100,00 %
07.04.2022 20:58 9,4 C 8,9 C 5,0 C 75 % 990,2 hPa 0,0 l/m 0 min 0 min 0 W/m 25,7 km/h (4 Bft) 97,87 %
07.04.2022 21:00 9,5 C 8,9 C 5,0 C 74 % 990,3 hPa 0,0 l/m 0 min 0 min 0 W/m 22,5 km/h (4 Bft) 100,00 %
07.04.2022 21:02 9,5 C 8,9 C 5,0 C 75 % 990,5 hPa 0,0 l/m 0 min 0 min 0 W/m 16,1 km/h (3 Bft) 97,87 %
07.04.2022 21:04 9,5 C 8,9 C 5,0 C 74 % 990,5 hPa 0,0 l/m 0 min 0 min 0 W/m 19,3 km/h (3 Bft) 95,74 %
07.04.2022 21:06 9,5 C 8,3 C 5,0 C 74 % 990,5 hPa 0,0 l/m 0 min 0 min 0 W/m 12,9 km/h (3 Bft) 98,08 %
07.04.2022 21:08 9,5 C 8,3 C 5,0 C 74 % 990,9 hPa 0,0 l/m 0 min 0 min 0 W/m 19,3 km/h (3 Bft) 98,00 %
07.04.2022 21:10 9,5 C 8,3 C 5,0 C 74 % 990,9 hPa 0,0 l/m 0 min 2 min 0 W/m 35,4 km/h (5 Bft) 97,87 %
07.04.2022 21:12 9,4 C 7,8 C 3,9 C 75 % 990,9 hPa 0,0 l/m 0 min 2 min 0 W/m 25,7 km/h (4 Bft) 94,74 %
07.04.2022 21:14 9,3 C 7,8 C 3,3 C 76 % 990,7 hPa 0,0 l/m 0 min 2 min 0 W/m 29,0 km/h (5 Bft) 97,87 %
07.04.2022 21:16 9,1 C 7,2 C 3,3 C 76 % 990,8 hPa 0,0 l/m 0 min 2 min 0 W/m 29,0 km/h (5 Bft) 98,18 %
07.04.2022 21:18 8,9 C 7,2 C 3,3 C 77 % 990,9 hPa 0,0 l/m 0 min 2 min 0 W/m 38,6 km/h (5 Bft) 92,11 %
07.04.2022 21:20 8,9 C 7,8 C 3,3 C 77 % 990,9 hPa 0,0 l/m 0 min 0 min 0 W/m 38,6 km/h (5 Bft) 97,87 %
07.04.2022 21:22 8,8 C 7,8 C 3,3 C 77 % 990,9 hPa 0,0 l/m 0 min 0 min 0 W/m 25,7 km/h (4 Bft) 97,87 %
07.04.2022 21:24 8,8 C 7,8 C 3,3 C 77 % 990,8 hPa 0,0 l/m 0 min 0 min 0 W/m 25,7 km/h (4 Bft) 95,74 %
07.04.2022 21:26 8,8 C 7,8 C 3,9 C 77 % 990,9 hPa 0,0 l/m 0 min 0 min 0 W/m 25,7 km/h (4 Bft) 96,36 %
07.04.2022 21:28 8,8 C 7,8 C 3,9 C 77 % 990,9 hPa 0,0 l/m 0 min 0 min 0 W/m 22,5 km/h (4 Bft) 97,37 %
07.04.2022 21:30 8,8 C 7,8 C 3,9 C 76 % 990,9 hPa 0,0 l/m 0 min 0 min 0 W/m 22,5 km/h (4 Bft) 95,74 %
07.04.2022 21:32 8,8 C 7,8 C 3,9 C 77 % 990,9 hPa 0,0 l/m 0 min 0 min 0 W/m 19,3 km/h (3 Bft) 96,43 %
07.04.2022 21:34 8,9 C 7,8 C 4,4 C 77 % 991,0 hPa 0,0 l/m 0 min 0 min 0 W/m 22,5 km/h (4 Bft) 97,37 %
07.04.2022 21:36 8,9 C 8,3 C 4,4 C 76 % 990,9 hPa 0,0 l/m 0 min 0 min 0 W/m 35,4 km/h (5 Bft) 96,23 %
07.04.2022 21:38 8,9 C 8,3 C 4,4 C 76 % 991,0 hPa 0,0 l/m 0 min 0 min 0 W/m 25,7 km/h (4 Bft) 97,83 %
07.04.2022 21:40 9,0 C 8,3 C 4,4 C 76 % 991,1 hPa 0,0 l/m 0 min 0 min 0 W/m 19,3 km/h (3 Bft) 98,00 %
07.04.2022 21:42 9,0 C 8,3 C 4,4 C 76 % 991,2 hPa 0,0 l/m 0 min 0 min 0 W/m 25,7 km/h (4 Bft) 94,74 %
07.04.2022 21:44 9,0 C 8,3 C 4,4 C 76 % 991,1 hPa 0,0 l/m 0 min 2 min 0 W/m 25,7 km/h (4 Bft) 97,87 %
07.04.2022 21:46 8,9 C 7,8 C 4,4 C 76 % 991,2 hPa 0,0 l/m 0 min 2 min 0 W/m 22,5 km/h (4 Bft) 100,00 %
07.04.2022 21:48 8,9 C 7,8 C 4,4 C 76 % 991,3 hPa 0,0 l/m 0 min 2 min 0 W/m 29,0 km/h (5 Bft) 100,00 %
07.04.2022 21:50 8,9 C 8,3 C 4,4 C 77 % 991,3 hPa 0,0 l/m 0 min 2 min 0 W/m 41,8 km/h (6 Bft) 97,44 %
07.04.2022 21:52 8,9 C 8,3 C 4,4 C 76 % 991,4 hPa 0,0 l/m 0 min 2 min 0 W/m 25,7 km/h (4 Bft) 100,00 %
07.04.2022 21:54 9,0 C 7,8 C 4,4 C 76 % 991,8 hPa 0,0 l/m 0 min 2 min 0 W/m 38,6 km/h (5 Bft) 100,00 %
07.04.2022 21:56 9,0 C 7,8 C 3,9 C 77 % 991,8 hPa 0,0 l/m 0 min 2 min 0 W/m 32,2 km/h (5 Bft) 100,00 %
07.04.2022 21:58 8,8 C 7,8 C 3,3 C 79 % 992,0 hPa 0,0 l/m 0 min 2 min 0 W/m 29,0 km/h (5 Bft) 100,00 %
07.04.2022 22:00 8,8 C 7,2 C 3,3 C 80 % 992,0 hPa 0,2 l/m 0 min 2 min 0 W/m 25,7 km/h (4 Bft) 97,87 %
07.04.2022 22:02 8,6 C 7,2 C 3,3 C 80 % 992,2 hPa 0,0 l/m 0 min 2 min 0 W/m 35,4 km/h (5 Bft) 97,87 %
07.04.2022 22:04 8,5 C 7,2 C 2,8 C 82 % 992,4 hPa 0,0 l/m 0 min 2 min 0 W/m 22,5 km/h (4 Bft) 96,36 %
07.04.2022 22:06 8,3 C 6,7 C 2,8 C 83 % 992,5 hPa 0,2 l/m 0 min 2 min 0 W/m 22,5 km/h (4 Bft) 54,17 %
07.04.2022 22:08 8,2 C 6,7 C 2,8 C 84 % 992,5 hPa 0,0 l/m 0 min 2 min 0 W/m 22,5 km/h (4 Bft) 97,87 %
07.04.2022 22:10 8,1 C 6,7 C 2,8 C 84 % 992,6 hPa 0,0 l/m 0 min 2 min 0 W/m 22,5 km/h (4 Bft) 97,87 %
07.04.2022 22:12 7,9 C 6,7 C 2,8 C 85 % 993,0 hPa 0,0 l/m 0 min 2 min 0 W/m 35,4 km/h (5 Bft) 97,37 %
07.04.2022 22:14 7,8 C 6,7 C 2,8 C 85 % 993,1 hPa 0,0 l/m 0 min 2 min 0 W/m 22,5 km/h (4 Bft) 97,83 %
07.04.2022 22:16 7,7 C 6,1 C 2,8 C 86 % 993,3 hPa 0,2 l/m 0 min 2 min 0 W/m 35,4 km/h (5 Bft) 98,21 %
07.04.2022 22:18 7,4 C 5,6 C 2,2 C 86 % 993,0 hPa 0,2 l/m 0 min 2 min 0 W/m 29,0 km/h (5 Bft) 97,37 %
07.04.2022 22:20 7,1 C 5,6 C 2,2 C 87 % 992,8 hPa 0,0 l/m 0 min 2 min 0 W/m 35,4 km/h (5 Bft) 98,00 %
07.04.2022 22:22 7,0 C 5,6 C 2,2 C 87 % 992,6 hPa 0,0 l/m 0 min 2 min 0 W/m 25,7 km/h (4 Bft) 97,87 %
07.04.2022 22:24 6,9 C 5,6 C 2,2 C 87 % 992,6 hPa 0,0 l/m 0 min 0 min 0 W/m 29,0 km/h (5 Bft) 97,83 %
07.04.2022 22:26 7,0 C 6,1 C 2,2 C 87 % 992,8 hPa 0,0 l/m 0 min 0 min 0 W/m 25,7 km/h (4 Bft) 95,74 %
07.04.2022 22:28 7,0 C 6,1 C 2,2 C 87 % 992,8 hPa 0,0 l/m 0 min 0 min 0 W/m 32,2 km/h (5 Bft) 97,87 %
07.04.2022 22:30 7,0 C 6,1 C 2,2 C 87 % 992,8 hPa 0,0 l/m 0 min 0 min 0 W/m 19,3 km/h (3 Bft) 97,73 %
07.04.2022 22:32 6,9 C 6,1 C 2,2 C 87 % 992,8 hPa 0,0 l/m 0 min 0 min 0 W/m 25,7 km/h (4 Bft) 97,87 %
07.04.2022 22:34 6,9 C 6,1 C 2,2 C 87 % 992,9 hPa 0,0 l/m 0 min 0 min 0 W/m 25,7 km/h (4 Bft) 100,00 %
07.04.2022 22:36 6,9 C 6,1 C 2,2 C 87 % 992,8 hPa 0,0 l/m 0 min 0 min 0 W/m 19,3 km/h (3 Bft) 97,83 %
07.04.2022 22:38 6,9 C 6,1 C 2,2 C 87 % 992,8 hPa 0,0 l/m 0 min 0 min 0 W/m 25,7 km/h (4 Bft) 100,00 %
07.04.2022 22:40 6,9 C 6,1 C 2,2 C 87 % 992,9 hPa 0,0 l/m 0 min 0 min 0 W/m 22,5 km/h (4 Bft) 100,00 %
07.04.2022 22:42 6,9 C 6,1 C 2,2 C 87 % 993,1 hPa 0,0 l/m 0 min 0 min 0 W/m 25,7 km/h (4 Bft) 97,87 %
07.04.2022 22:44 6,9 C 6,1 C 2,2 C 87 % 993,0 hPa 0,0 l/m 0 min 0 min 0 W/m 38,6 km/h (5 Bft) 100,00 %
07.04.2022 22:46 6,9 C 6,1 C 2,2 C 87 % 993,1 hPa 0,0 l/m 0 min 0 min 0 W/m 38,6 km/h (5 Bft) 100,00 %
07.04.2022 22:48 6,9 C 6,1 C 2,2 C 87 % 993,4 hPa 0,0 l/m 0 min 0 min 0 W/m 25,7 km/h (4 Bft) 97,83 %
07.04.2022 22:50 6,9 C 6,1 C 2,2 C 87 % 993,1 hPa 0,0 l/m 0 min 0 min 0 W/m 29,0 km/h (5 Bft) 100,00 %
07.04.2022 22:52 7,0 C 6,1 C 2,2 C 86 % 993,3 hPa 0,0 l/m 0 min 0 min 0 W/m 22,5 km/h (4 Bft) 100,00 %
07.04.2022 22:54 7,0 C 6,1 C 2,2 C 86 % 993,2 hPa 0,0 l/m 0 min 0 min 0 W/m 38,6 km/h (5 Bft) 100,00 %
07.04.2022 22:56 7,1 C 6,1 C 2,2 C 86 % 993,3 hPa 0,0 l/m 0 min 0 min 0 W/m 22,5 km/h (4 Bft) 100,00 %
07.04.2022 22:58 7,1 C 6,1 C 2,2 C 86 % 993,5 hPa 0,0 l/m 0 min 0 min 0 W/m 22,5 km/h (4 Bft) 100,00 %
07.04.2022 23:00 7,1 C 6,1 C 2,2 C 86 % 993,4 hPa 0,0 l/m 0 min 0 min 0 W/m 32,2 km/h (5 Bft) 97,96 %
07.04.2022 23:02 7,1 C 6,1 C 2,2 C 86 % 993,6 hPa 0,0 l/m 0 min 0 min 0 W/m 32,2 km/h (5 Bft) 95,74 %
07.04.2022 23:04 7,1 C 6,1 C 2,2 C 85 % 993,4 hPa 0,0 l/m 0 min 0 min 0 W/m 16,1 km/h (3 Bft) 98,00 %
07.04.2022 23:06 7,1 C 6,1 C 2,2 C 85 % 993,5 hPa 0,0 l/m 0 min 0 min 0 W/m 22,5 km/h (4 Bft) 95,74 %
07.04.2022 23:08 7,1 C 6,1 C 2,2 C 85 % 993,6 hPa 0,0 l/m 0 min 0 min 0 W/m 25,7 km/h (4 Bft) 97,62 %
07.04.2022 23:10 7,1 C 6,1 C 2,2 C 85 % 993,5 hPa 0,0 l/m 0 min 0 min 0 W/m 19,3 km/h (3 Bft) 95,74 %
07.04.2022 23:12 7,1 C 6,1 C 2,2 C 86 % 993,6 hPa 0,0 l/m 0 min 0 min 0 W/m 25,7 km/h (4 Bft) 97,96 %
07.04.2022 23:14 7,1 C 6,1 C 2,2 C 86 % 993,6 hPa 0,0 l/m 0 min 0 min 0 W/m 22,5 km/h (4 Bft) 97,87 %
07.04.2022 23:16 7,1 C 6,1 C 2,2 C 86 % 993,6 hPa 0,0 l/m 0 min 0 min 0 W/m 19,3 km/h (3 Bft) 97,96 %
07.04.2022 23:18 7,1 C 6,1 C 2,2 C 86 % 993,6 hPa 0,0 l/m 0 min 0 min 0 W/m 16,1 km/h (3 Bft) 95,74 %
07.04.2022 23:20 7,1 C 6,1 C 2,8 C 86 % 993,9 hPa 0,0 l/m 0 min 0 min 0 W/m 29,0 km/h (5 Bft) 97,62 %
07.04.2022 23:22 7,1 C 6,1 C 2,8 C 86 % 993,7 hPa 0,0 l/m 0 min 0 min 0 W/m 16,1 km/h (3 Bft) 98,00 %
07.04.2022 23:24 7,1 C 6,1 C 2,8 C 86 % 993,7 hPa 0,0 l/m 0 min 0 min 0 W/m 19,3 km/h (3 Bft) 91,30 %
07.04.2022 23:26 7,1 C 6,1 C 2,8 C 86 % 993,9 hPa 0,0 l/m 0 min 0 min 0 W/m 22,5 km/h (4 Bft) 93,62 %
07.04.2022 23:28 7,1 C 6,1 C 2,8 C 86 % 993,8 hPa 0,0 l/m 0 min 0 min 0 W/m 29,0 km/h (5 Bft) 95,74 %
07.04.2022 23:30 7,1 C 6,1 C 2,8 C 86 % 993,8 hPa 0,0 l/m 0 min 0 min 0 W/m 35,4 km/h (5 Bft) 97,96 %
07.04.2022 23:32 7,1 C 6,1 C 2,8 C 86 % 993,9 hPa 0,0 l/m 0 min 0 min 0 W/m 22,5 km/h (4 Bft) 91,49 %
07.04.2022 23:34 7,1 C 6,1 C 2,8 C 86 % 994,0 hPa 0,0 l/m 0 min 0 min 0 W/m 19,3 km/h (3 Bft) 97,56 %
07.04.2022 23:36 7,1 C 6,1 C 3,3 C 86 % 994,1 hPa 0,0 l/m 0 min 0 min 0 W/m 19,3 km/h (3 Bft) 94,00 %
07.04.2022 23:38 7,1 C 6,1 C 3,3 C 86 % 994,3 hPa 0,0 l/m 0 min 0 min 0 W/m 25,7 km/h (4 Bft) 95,92 %
07.04.2022 23:40 7,2 C 6,1 C 3,3 C 86 % 994,3 hPa 0,0 l/m 0 min 0 min 0 W/m 25,7 km/h (4 Bft) 95,74 %
07.04.2022 23:42 7,2 C 6,1 C 2,8 C 86 % 994,3 hPa 0,0 l/m 0 min 2 min 0 W/m 35,4 km/h (5 Bft) 91,49 %
07.04.2022 23:44 7,2 C 6,1 C 2,8 C 86 % 994,2 hPa 0,0 l/m 0 min 2 min 0 W/m 22,5 km/h (4 Bft) 95,74 %
07.04.2022 23:46 7,1 C 6,1 C 2,8 C 86 % 994,3 hPa 0,0 l/m 0 min 2 min 0 W/m 19,3 km/h (3 Bft) 93,48 %
07.04.2022 23:48 7,1 C 6,1 C 2,8 C 86 % 994,3 hPa 0,0 l/m 0 min 0 min 0 W/m 19,3 km/h (3 Bft) 92,86 %
07.04.2022 23:50 7,1 C 6,1 C 2,2 C 87 % 994,5 hPa 0,0 l/m 0 min 0 min 0 W/m 22,5 km/h (4 Bft) 93,62 %
07.04.2022 23:52 7,0 C 6,1 C 2,2 C 87 % 994,4 hPa 0,0 l/m 0 min 0 min 0 W/m 22,5 km/h (4 Bft) 94,00 %
07.04.2022 23:54 6,9 C 6,1 C 2,2 C 87 % 994,5 hPa 0,0 l/m 0 min 0 min 0 W/m 22,5 km/h (4 Bft) 93,88 %
07.04.2022 23:56 6,9 C 6,1 C 2,8 C 87 % 994,6 hPa 0,0 l/m 0 min 0 min 0 W/m 19,3 km/h (3 Bft) 95,65 %
07.04.2022 23:58 6,9 C 6,1 C 2,8 C 87 % 994,5 hPa 0,0 l/m 0 min 0 min 0 W/m 22,5 km/h (4 Bft) 93,62 %
_ Min-Zeit 22:24 18:46 18:16 14:32 10:50 - - - - 11:56 00:54
Minimum _ 6,9 C 5,6 C 2,2 C 60 % 982,8 hPa - - - - 12,9 km/h (3 Bft) 51,16 %
_ Max-Zeit 14:04 14:00 13:38 11:54 00:00 11:22 09:46 12:08 14:02 10:38 00:02
Maximum _ 13,9 C 16,7 C 11,1 C 96 % 996,2 hPa 1,0 l/m 2 min 4 min 992 W/m 77,2 km/h
S-SO (9 Bft)
100,00 %
Durchschnitt _ 9,7 C 9,1 C 5,4 C 84 % 989,1 hPa #11,2 l/m #2:14 h #10:52 h 178 W/m 32,0 km/h (5 Bft) 97,28 %
© 2022 W. Hausmann